Observation data for McCamey on 01/12/2019      Previous  Date  Next       Current Mesonet Observations  Soil Data  Daily Summary Page  Observations in Plain Language
KMC4 120600Z 19001KT 06/04 A3002 RMK A01 T00640037  RH  083%=      5-min Rain = 0
KMC4 120601Z 19001KT 06/04 A3002 RMK A01 T00640037  RH  083%=      5-min Rain = 0
KMC4 120602Z 19001KT 06/04 A3002 RMK A01 T00630037  RH  083%=      5-min Rain = 0
KMC4 120603Z 20001KT 06/04 A3002 RMK A01 T00630037  RH  083%=      5-min Rain = 0
KMC4 120604Z 20001KT 06/04 A3002 RMK A01 T00640037  RH  083%=      5-min Rain = 0
KMC4 120605Z 20000KT 06/04 A3002 RMK A01 T00640036  RH  082%=      5-min Rain = 0
KMC4 120606Z 00000KT 07/04 A3003 RMK A01 T00650037  RH  082%=      5-min Rain = 0
KMC4 120607Z 00000KT 07/04 A3003 RMK A01 T00650036  RH  082%=      5-min Rain = 0
KMC4 120608Z 12000KT 07/04 A3003 RMK A01 T00650036  RH  082%=      5-min Rain = 0
KMC4 120609Z 00000KT 07/04 A3003 RMK A01 T00650036  RH  082%=      5-min Rain = 0
KMC4 120610Z 00000KT 07/04 A3003 RMK A01 T00650036  RH  082%=      5-min Rain = 0
KMC4 120611Z 21000KT 07/04 A3003 RMK A01 T00660036  RH  081%=      5-min Rain = 0
KMC4 120612Z 20000KT 07/04 A3003 RMK A01 T00670036  RH  081%=      5-min Rain = 0
KMC4 120613Z 25001KT 07/04 A3003 RMK A01 T00670036  RH  081%=      5-min Rain = 0
KMC4 120614Z 22002KT 07/04 A3003 RMK A01 T00670036  RH  081%=      5-min Rain = 0
KMC4 120615Z 22001KT 07/04 A3003 RMK A01 T00670036  RH  080%=      5-min Rain = 0
KMC4 120616Z 26000KT 07/04 A3003 RMK A01 T00680036  RH  080%=      5-min Rain = 0
KMC4 120617Z 28000KT 07/04 A3003 RMK A01 T00690036  RH  079%=      5-min Rain = 0
KMC4 120618Z 21001KT 07/04 A3003 RMK A01 T00690036  RH  079%=      5-min Rain = 0
KMC4 120619Z 22001KT 07/04 A3003 RMK A01 T00690036  RH  079%=      5-min Rain = 0
KMC4 120620Z 24001KT 07/04 A3003 RMK A01 T00700036  RH  079%=      5-min Rain = 0
KMC4 120621Z 22001KT 07/04 A3003 RMK A01 T00700036  RH  079%=      5-min Rain = 0
KMC4 120622Z 21000KT 07/04 A3003 RMK A01 T00700036  RH  079%=      5-min Rain = 0
KMC4 120623Z 23000KT 07/04 A3003 RMK A01 T00700036  RH  079%=      5-min Rain = 0
KMC4 120624Z 24001KT 07/04 A3003 RMK A01 T00690036  RH  080%=      5-min Rain = 0
KMC4 120625Z 00000KT 07/04 A3003 RMK A01 T00680036  RH  080%=      5-min Rain = 0
KMC4 120626Z 28000KT 07/04 A3003 RMK A01 T00680036  RH  080%=      5-min Rain = 0
KMC4 120627Z 32001KT 07/04 A3003 RMK A01 T00670036  RH  081%=      5-min Rain = 0
KMC4 120628Z 31001KT 07/04 A3003 RMK A01 T00670035  RH  080%=      5-min Rain = 0
KMC4 120629Z 30001KT 07/04 A3003 RMK A01 T00680036  RH  080%=      5-min Rain = 0
KMC4 120630Z 29001KT 07/04 A3003 RMK A01 T00680036  RH  081%=      5-min Rain = 0
KMC4 120631Z 29002KT 07/04 A3003 RMK A01 T00680036  RH  080%=      5-min Rain = 0
KMC4 120632Z 28002KT 07/04 A3003 RMK A01 T00680035  RH  080%=      5-min Rain = 0
KMC4 120633Z 29002KT 07/04 A3003 RMK A01 T00690035  RH  079%=      5-min Rain = 0
KMC4 120634Z 27003KT 07/04 A3003 RMK A01 T00690035  RH  079%=      5-min Rain = 0
KMC4 120635Z 26003KT 07/04 A3003 RMK A01 T00700035  RH  078%=      5-min Rain = 0
KMC4 120636Z 28002KT 07/04 A3003 RMK A01 T00700035  RH  078%=      5-min Rain = 0
KMC4 120637Z 28002KT 07/04 A3003 RMK A01 T00710035  RH  078%=      5-min Rain = 0
KMC4 120638Z 26003KT 07/04 A3003 RMK A01 T00710035  RH  078%=      5-min Rain = 0
KMC4 120639Z 26003KT 07/04 A3003 RMK A01 T00710035  RH  078%=      5-min Rain = 0
KMC4 120640Z 26004KT 07/04 A3003 RMK A01 T00710035  RH  078%=      5-min Rain = 0
KMC4 120641Z 27004KT 07/04 A3003 RMK A01 T00720035  RH  077%=      5-min Rain = 0
KMC4 120642Z 27004KT 07/04 A3003 RMK A01 T00730035  RH  077%=      5-min Rain = 0
KMC4 120643Z 27004KT 07/04 A3003 RMK A01 T00730035  RH  077%=      5-min Rain = 0
KMC4 120644Z 27004KT 07/04 A3003 RMK A01 T00730035  RH  077%=      5-min Rain = 0
KMC4 120645Z 28004KT 07/04 A3003 RMK A01 T00730035  RH  077%=      5-min Rain = 0
KMC4 120646Z 28004KT 07/04 A3003 RMK A01 T00730035  RH  077%=      5-min Rain = 0
KMC4 120647Z 28005KT 07/04 A3003 RMK A01 T00730035  RH  077%=      5-min Rain = 0
KMC4 120648Z 28005KT 07/04 A3003 RMK A01 T00720035  RH  077%=      5-min Rain = 0
KMC4 120649Z 28005KT 07/04 A3003 RMK A01 T00710035  RH  078%=      5-min Rain = 0
KMC4 120650Z 28005KT 07/04 A3003 RMK A01 T00700035  RH  078%=      5-min Rain = 0
KMC4 120651Z 29006KT 07/04 A3003 RMK A01 T00700035  RH  078%=      5-min Rain = 0
KMC4 120652Z 29006KT 07/03 A3003 RMK A01 T00690034  RH  079%=      5-min Rain = 0
KMC4 120653Z 29006KT 07/04 A3003 RMK A01 T00680035  RH  079%=      5-min Rain = 0
KMC4 120654Z 29006KT 07/03 A3003 RMK A01 T00680034  RH  079%=      5-min Rain = 0
KMC4 120655Z 29006KT 07/03 A3003 RMK A01 T00680034  RH  079%=      5-min Rain = 0
KMC4 120656Z 29006KT 07/03 A3003 RMK A01 T00670034  RH  079%=      5-min Rain = 0
KMC4 120657Z 29006KT 07/03 A3003 RMK A01 T00670034  RH  080%=      5-min Rain = 0
KMC4 120658Z 29006KT 07/03 A3003 RMK A01 T00660034  RH  080%=      5-min Rain = 0
KMC4 120659Z 29006KT 07/03 A3003 RMK A01 T00650033  RH  080%=      5-min Rain = 0
KMC4 120700Z 29005KT 06/03 A3003 RMK A01 T00640033  RH  081%=      5-min Rain = 0
KMC4 120701Z 29005KT 06/03 A3003 RMK A01 T00630033  RH  081%=      5-min Rain = 0
KMC4 120702Z 29005KT 06/03 A3003 RMK A01 T00630033  RH  081%=      5-min Rain = 0
KMC4 120703Z 29005KT 06/03 A3003 RMK A01 T00620033  RH  082%=      5-min Rain = 0
KMC4 120704Z 29005KT 06/03 A3003 RMK A01 T00620032  RH  082%=      5-min Rain = 0
KMC4 120705Z 29005KT 06/03 A3003 RMK A01 T00610032  RH  082%=      5-min Rain = 0
KMC4 120706Z 29004KT 06/03 A3003 RMK A01 T00610033  RH  082%=      5-min Rain = 0
KMC4 120707Z 29004KT 06/03 A3003 RMK A01 T00610033  RH  082%=      5-min Rain = 0
KMC4 120708Z 29004KT 06/03 A3003 RMK A01 T00610033  RH  082%=      5-min Rain = 0
KMC4 120709Z 30003KT 06/03 A3003 RMK A01 T00600032  RH  082%=      5-min Rain = 0
KMC4 120710Z 30003KT 06/03 A3003 RMK A01 T00600032  RH  082%=      5-min Rain = 0
KMC4 120711Z 30003KT 06/03 A3003 RMK A01 T00600032  RH  082%=      5-min Rain = 0
KMC4 120712Z 30003KT 06/03 A3003 RMK A01 T00590032  RH  083%=      5-min Rain = 0
KMC4 120713Z 30003KT 06/03 A3003 RMK A01 T00590032  RH  083%=      5-min Rain = 0
KMC4 120714Z 30003KT 06/03 A3003 RMK A01 T00590032  RH  083%=      5-min Rain = 0
KMC4 120715Z 30003KT 06/03 A3003 RMK A01 T00590032  RH  083%=      5-min Rain = 0
KMC4 120716Z 29003KT 06/03 A3003 RMK A01 T00580032  RH  083%=      5-min Rain = 0
KMC4 120717Z 29003KT 06/03 A3003 RMK A01 T00580032  RH  083%=      5-min Rain = 0
KMC4 120718Z 29003KT 06/03 A3003 RMK A01 T00580032  RH  084%=      5-min Rain = 0
KMC4 120719Z 29003KT 06/03 A3003 RMK A01 T00580032  RH  084%=      5-min Rain = 0
KMC4 120720Z 29003KT 06/03 A3003 RMK A01 T00570032  RH  084%=      5-min Rain = 0
KMC4 120721Z 30003KT 06/03 A3004 RMK A01 T00570032  RH  084%=      5-min Rain = 0
KMC4 120722Z 29003KT 06/03 A3004 RMK A01 T00570032  RH  084%=      5-min Rain = 0
KMC4 120723Z 29003KT 06/03 A3004 RMK A01 T00560031  RH  084%=      5-min Rain = 0
KMC4 120724Z 29003KT 06/03 A3004 RMK A01 T00560031  RH  084%=      5-min Rain = 0
KMC4 120725Z 30003KT 06/03 A3004 RMK A01 T00560031  RH  084%=      5-min Rain = 0
KMC4 120726Z 29003KT 06/03 A3004 RMK A01 T00560031  RH  084%=      5-min Rain = 0
KMC4 120727Z 29004KT 06/03 A3004 RMK A01 T00560032  RH  085%=      5-min Rain = 0
KMC4 120728Z 29004KT 06/03 A3004 RMK A01 T00550031  RH  085%=      5-min Rain = 0
KMC4 120729Z 30004KT 06/03 A3004 RMK A01 T00550032  RH  085%=      5-min Rain = 0
KMC4 120730Z 30003KT 06/03 A3004 RMK A01 T00550031  RH  085%=      5-min Rain = 0
KMC4 120731Z 30004KT 06/03 A3004 RMK A01 T00550031  RH  085%=      5-min Rain = 0
KMC4 120732Z 29004KT 05/03 A3004 RMK A01 T00540031  RH  085%=      5-min Rain = 0
KMC4 120733Z 29004KT 05/03 A3004 RMK A01 T00530031  RH  085%=      5-min Rain = 0
KMC4 120734Z 29004KT 05/03 A3004 RMK A01 T00530031  RH  086%=      5-min Rain = 0
KMC4 120735Z 29004KT 05/03 A3004 RMK A01 T00530031  RH  086%=      5-min Rain = 0
KMC4 120736Z 29004KT 05/03 A3004 RMK A01 T00530031  RH  086%=      5-min Rain = 0
KMC4 120737Z 29004KT 05/03 A3004 RMK A01 T00520031  RH  086%=      5-min Rain = 0
KMC4 120738Z 28004KT 05/03 A3004 RMK A01 T00520031  RH  086%=      5-min Rain = 0
KMC4 120739Z 28005KT 05/03 A3004 RMK A01 T00520031  RH  086%=      5-min Rain = 0
KMC4 120740Z 28005KT 05/03 A3004 RMK A01 T00520031  RH  086%=      5-min Rain = 0
KMC4 120741Z 28004KT 05/03 A3004 RMK A01 T00520031  RH  086%=      5-min Rain = 0
KMC4 120742Z 28004KT 05/03 A3004 RMK A01 T00510030  RH  086%=      5-min Rain = 0
KMC4 120743Z 28004KT 05/03 A3004 RMK A01 T00510030  RH  086%=      5-min Rain = 0
KMC4 120744Z 28004KT 05/03 A3004 RMK A01 T00510030  RH  087%=      5-min Rain = 0
KMC4 120745Z 28005KT 05/03 A3004 RMK A01 T00500030  RH  087%=      5-min Rain = 0
KMC4 120746Z 28005KT 05/03 A3004 RMK A01 T00500030  RH  087%=      5-min Rain = 0
KMC4 120747Z 28005KT 05/03 A3004 RMK A01 T00500030  RH  087%=      5-min Rain = 0
KMC4 120748Z 28005KT 05/03 A3004 RMK A01 T00490030  RH  087%=      5-min Rain = 0
KMC4 120749Z 28005KT 05/03 A3004 RMK A01 T00490030  RH  087%=      5-min Rain = 0
KMC4 120750Z 28005KT 05/03 A3005 RMK A01 T00490030  RH  087%=      5-min Rain = 0
KMC4 120751Z 28005KT 05/03 A3005 RMK A01 T00490030  RH  087%=      5-min Rain = 0
KMC4 120752Z 28005KT 05/03 A3005 RMK A01 T00490030  RH  087%=      5-min Rain = 0
KMC4 120753Z 28004KT 05/03 A3005 RMK A01 T00490030  RH  087%=      5-min Rain = 0
KMC4 120754Z 28004KT 05/03 A3005 RMK A01 T00490030  RH  087%=      5-min Rain = 0
KMC4 120755Z 28005KT 05/03 A3005 RMK A01 T00490030  RH  087%=      5-min Rain = 0
KMC4 120756Z 28005KT 05/03 A3005 RMK A01 T00490030  RH  087%=      5-min Rain = 0
KMC4 120757Z 27005KT 05/03 A3005 RMK A01 T00490030  RH  087%=      5-min Rain = 0
KMC4 120758Z 27005KT 05/03 A3005 RMK A01 T00490030  RH  087%=      5-min Rain = 0
KMC4 120759Z 27005KT 05/03 A3005 RMK A01 T00490030  RH  087%=      5-min Rain = 0
KMC4 120800Z 27004KT 05/03 A3005 RMK A01 T00490030  RH  087%=      5-min Rain = 0
KMC4 120801Z 27004KT 05/03 A3005 RMK A01 T00490030  RH  087%=      5-min Rain = 0
KMC4 120802Z 27004KT 05/03 A3005 RMK A01 T00490030  RH  088%=      5-min Rain = 0
KMC4 120803Z 27003KT 05/03 A3005 RMK A01 T00480030  RH  088%=      5-min Rain = 0
KMC4 120804Z 25003KT 05/03 A3006 RMK A01 T00480030  RH  088%=      5-min Rain = 0
KMC4 120805Z 26004KT 05/03 A3006 RMK A01 T00470029  RH  088%=      5-min Rain = 0
KMC4 120806Z 25003KT 05/03 A3006 RMK A01 T00470029  RH  088%=      5-min Rain = 0
KMC4 120807Z 26002KT 05/03 A3006 RMK A01 T00470029  RH  088%=      5-min Rain = 0
KMC4 120808Z 26002KT 05/03 A3006 RMK A01 T00460028  RH  088%=      5-min Rain = 0
KMC4 120809Z 26003KT 05/03 A3006 RMK A01 T00450028  RH  088%=      5-min Rain = 0
KMC4 120810Z 26002KT 05/03 A3006 RMK A01 T00450027  RH  088%=      5-min Rain = 0
KMC4 120811Z 26002KT 04/03 A3006 RMK A01 T00440027  RH  089%=      5-min Rain = 0
KMC4 120812Z 25002KT 04/03 A3006 RMK A01 T00440027  RH  089%=      5-min Rain = 0
KMC4 120813Z 26002KT 04/03 A3006 RMK A01 T00440028  RH  089%=      5-min Rain = 0
KMC4 120814Z 25001KT 04/03 A3006 RMK A01 T00430028  RH  090%=      5-min Rain = 0
KMC4 120815Z 26001KT 04/03 A3006 RMK A01 T00430028  RH  090%=      5-min Rain = 0
KMC4 120816Z 26001KT 04/03 A3007 RMK A01 T00430029  RH  090%=      5-min Rain = 0
KMC4 120817Z 26002KT 04/03 A3007 RMK A01 T00430029  RH  090%=      5-min Rain = 0
KMC4 120818Z 25002KT 04/03 A3007 RMK A01 T00430029  RH  090%=      5-min Rain = 0
KMC4 120819Z 26002KT 04/03 A3007 RMK A01 T00430029  RH  091%=      5-min Rain = 0
KMC4 120820Z 27001KT 04/03 A3007 RMK A01 T00430029  RH  091%=      5-min Rain = 0
KMC4 120821Z 27002KT 04/03 A3007 RMK A01 T00430029  RH  091%=      5-min Rain = 0
KMC4 120822Z 27002KT 04/03 A3007 RMK A01 T00430029  RH  091%=      5-min Rain = 0
KMC4 120823Z 27002KT 04/03 A3007 RMK A01 T00440029  RH  091%=      5-min Rain = 0
KMC4 120824Z 27002KT 04/03 A3007 RMK A01 T00430029  RH  091%=      5-min Rain = 0
KMC4 120825Z 27002KT 04/03 A3007 RMK A01 T00440030  RH  091%=      5-min Rain = 0
KMC4 120826Z 27002KT 04/03 A3007 RMK A01 T00440030  RH  091%=      5-min Rain = 0
KMC4 120827Z 27002KT 04/03 A3007 RMK A01 T00440030  RH  091%=      5-min Rain = 0
KMC4 120828Z 27002KT 04/03 A3007 RMK A01 T00440029  RH  091%=      5-min Rain = 0
KMC4 120829Z 27002KT 04/03 A3007 RMK A01 T00440030  RH  091%=      5-min Rain = 0
KMC4 120830Z 28002KT 04/03 A3007 RMK A01 T00440030  RH  091%=      5-min Rain = 0
KMC4 120831Z 28002KT 05/03 A3007 RMK A01 T00450031  RH  091%=      5-min Rain = 0
KMC4 120832Z 28002KT 05/03 A3007 RMK A01 T00460031  RH  090%=      5-min Rain = 0
KMC4 120833Z 29002KT 05/03 A3007 RMK A01 T00460031  RH  090%=      5-min Rain = 0
KMC4 120834Z 29002KT 05/03 A3007 RMK A01 T00470031  RH  090%=      5-min Rain = 0
KMC4 120835Z 29002KT 05/03 A3007 RMK A01 T00470031  RH  089%=      5-min Rain = 0
KMC4 120836Z 28002KT 05/03 A3007 RMK A01 T00480031  RH  089%=      5-min Rain = 0
KMC4 120837Z 28002KT 05/03 A3007 RMK A01 T00480031  RH  089%=      5-min Rain = 0
KMC4 120838Z 28002KT 05/03 A3007 RMK A01 T00480031  RH  089%=      5-min Rain = 0
KMC4 120839Z 29002KT 05/03 A3007 RMK A01 T00480030  RH  089%=      5-min Rain = 0
KMC4 120840Z 29001KT 05/03 A3007 RMK A01 T00480031  RH  088%=      5-min Rain = 0
KMC4 120841Z 30002KT 05/03 A3007 RMK A01 T00480031  RH  088%=      5-min Rain = 0
KMC4 120842Z 29002KT 05/03 A3007 RMK A01 T00480031  RH  088%=      5-min Rain = 0
KMC4 120843Z 29002KT 05/03 A3007 RMK A01 T00480031  RH  088%=      5-min Rain = 0
KMC4 120844Z 29002KT 05/03 A3007 RMK A01 T00490031  RH  088%=      5-min Rain = 0
KMC4 120845Z 29002KT 05/03 A3007 RMK A01 T00490031  RH  088%=      5-min Rain = 0
KMC4 120846Z 29002KT 05/03 A3007 RMK A01 T00490031  RH  088%=      5-min Rain = 0
KMC4 120847Z 30002KT 05/03 A3007 RMK A01 T00490031  RH  088%=      5-min Rain = 0
KMC4 120848Z 31002KT 05/03 A3007 RMK A01 T00490031  RH  088%=      5-min Rain = 0
KMC4 120849Z 31002KT 05/03 A3007 RMK A01 T00490031  RH  088%=      5-min Rain = 0
KMC4 120850Z 32003KT 05/03 A3007 RMK A01 T00490031  RH  089%=      5-min Rain = 0
KMC4 120851Z 33002KT 05/03 A3008 RMK A01 T00490032  RH  088%=      5-min Rain = 0
KMC4 120852Z 33002KT 05/03 A3008 RMK A01 T00500032  RH  088%=      5-min Rain = 0
KMC4 120853Z 33002KT 05/03 A3008 RMK A01 T00510032  RH  088%=      5-min Rain = 0
KMC4 120854Z 33002KT 05/03 A3008 RMK A01 T00510033  RH  088%=      5-min Rain = 0
KMC4 120855Z 32002KT 05/03 A3008 RMK A01 T00520033  RH  088%=      5-min Rain = 0
KMC4 120856Z 32002KT 05/03 A3008 RMK A01 T00520033  RH  087%=      5-min Rain = 0
KMC4 120857Z 34002KT 05/03 A3008 RMK A01 T00520032  RH  087%=      5-min Rain = 0
KMC4 120858Z 33002KT 05/03 A3008 RMK A01 T00520032  RH  087%=      5-min Rain = 0
KMC4 120859Z 32002KT 05/03 A3008 RMK A01 T00520032  RH  087%=      5-min Rain = 0
KMC4 120900Z 33002KT 05/03 A3008 RMK A01 T00510032  RH  087%=      5-min Rain = 0
KMC4 120901Z 33002KT 05/03 A3008 RMK A01 T00510032  RH  087%=      5-min Rain = 0
KMC4 120902Z 33002KT 05/03 A3008 RMK A01 T00520032  RH  087%=      5-min Rain = 0
KMC4 120903Z 33002KT 05/03 A3008 RMK A01 T00510033  RH  088%=      5-min Rain = 0
KMC4 120904Z 32003KT 05/03 A3008 RMK A01 T00520033  RH  088%=      5-min Rain = 0
KMC4 120905Z 32003KT 05/03 A3008 RMK A01 T00520033  RH  087%=      5-min Rain = 0
KMC4 120906Z 32003KT 05/03 A3008 RMK A01 T00530033  RH  087%=      5-min Rain = 0
KMC4 120907Z 31003KT 05/03 A3008 RMK A01 T00520031  RH  087%=      5-min Rain = 0
KMC4 120908Z 31003KT 05/03 A3008 RMK A01 T00500030  RH  087%=      5-min Rain = 0
KMC4 120909Z 31004KT 05/03 A3008 RMK A01 T00490030  RH  087%=      5-min Rain = 0
KMC4 120910Z 31003KT 05/03 A3008 RMK A01 T00480029  RH  088%=      5-min Rain = 0
KMC4 120911Z 31004KT 05/03 A3008 RMK A01 T00460028  RH  088%=      5-min Rain = 0
KMC4 120912Z 30004KT 05/03 A3008 RMK A01 T00450028  RH  089%=      5-min Rain = 0
KMC4 120913Z 31004KT 04/03 A3008 RMK A01 T00440027  RH  089%=      5-min Rain = 0
KMC4 120914Z 31003KT 04/03 A3008 RMK A01 T00430027  RH  090%=      5-min Rain = 0
KMC4 120915Z 32003KT 04/03 A3008 RMK A01 T00430029  RH  091%=      5-min Rain = 0
KMC4 120916Z 33002KT 04/03 A3008 RMK A01 T00440030  RH  091%=      5-min Rain = 0
KMC4 120917Z 34002KT 04/03 A3008 RMK A01 T00430029  RH  091%=      5-min Rain = 0
KMC4 120918Z 33002KT 04/03 A3009 RMK A01 T00430029  RH  091%=      5-min Rain = 0
KMC4 120919Z 31003KT 04/03 A3009 RMK A01 T00440031  RH  091%=      5-min Rain = 0
KMC4 120920Z 30003KT 05/03 A3009 RMK A01 T00450032  RH  091%=      5-min Rain = 0
KMC4 120921Z 29003KT 05/03 A3009 RMK A01 T00470033  RH  091%=      5-min Rain = 0
KMC4 120922Z 29003KT 05/03 A3009 RMK A01 T00480033  RH  090%=      5-min Rain = 0
KMC4 120923Z 29004KT 05/03 A3009 RMK A01 T00480033  RH  090%=      5-min Rain = 0
KMC4 120924Z 30003KT 05/03 A3009 RMK A01 T00490033  RH  089%=      5-min Rain = 0
KMC4 120925Z 30002KT 05/03 A3009 RMK A01 T00490032  RH  089%=      5-min Rain = 0
KMC4 120926Z 31002KT 05/03 A3009 RMK A01 T00490032  RH  088%=      5-min Rain = 0
KMC4 120927Z 34001KT 05/03 A3009 RMK A01 T00480031  RH  088%=      5-min Rain = 0
KMC4 120928Z 05000KT 05/03 A3009 RMK A01 T00480030  RH  089%=      5-min Rain = 0
KMC4 120929Z 00000KT 05/03 A3009 RMK A01 T00480031  RH  089%=      5-min Rain = 0
KMC4 120930Z 28000KT 05/03 A3009 RMK A01 T00480031  RH  089%=      5-min Rain = 0
KMC4 120931Z 28001KT 05/03 A3009 RMK A01 T00470030  RH  089%=      5-min Rain = 0
KMC4 120932Z 27000KT 05/03 A3009 RMK A01 T00470031  RH  089%=      5-min Rain = 0
KMC4 120933Z 29001KT 05/03 A3009 RMK A01 T00470031  RH  089%=      5-min Rain = 0
KMC4 120934Z 29000KT 05/03 A3009 RMK A01 T00470030  RH  089%=      5-min Rain = 0
KMC4 120935Z 00000KT 05/03 A3009 RMK A01 T00470031  RH  089%=      5-min Rain = 0
KMC4 120936Z 00000KT 05/03 A3009 RMK A01 T00460031  RH  090%=      5-min Rain = 0
KMC4 120937Z 00000KT 05/03 A3009 RMK A01 T00460031  RH  090%=      5-min Rain = 0
KMC4 120938Z 19000KT 05/03 A3009 RMK A01 T00470032  RH  090%=      5-min Rain = 0
KMC4 120939Z 22002KT 05/03 A3009 RMK A01 T00470031  RH  090%=      5-min Rain = 0
KMC4 120940Z 23002KT 05/03 A3009 RMK A01 T00470030  RH  089%=      5-min Rain = 0
KMC4 120941Z 21001KT 05/03 A3009 RMK A01 T00450028  RH  089%=      5-min Rain = 0
KMC4 120942Z 19000KT 04/03 A3009 RMK A01 T00430025  RH  088%=      5-min Rain = 0
KMC4 120943Z 22000KT 04/02 A3009 RMK A01 T00410024  RH  089%=      5-min Rain = 0
KMC4 120944Z 22001KT 04/03 A3009 RMK A01 T00410027  RH  091%=      5-min Rain = 0
KMC4 120945Z 22002KT 04/03 A3009 RMK A01 T00430030  RH  091%=      5-min Rain = 0
KMC4 120946Z 23002KT 04/03 A3009 RMK A01 T00430031  RH  091%=      5-min Rain = 0
KMC4 120947Z 22001KT 04/03 A3009 RMK A01 T00440030  RH  091%=      5-min Rain = 0
KMC4 120948Z 21001KT 04/03 A3009 RMK A01 T00440030  RH  090%=      5-min Rain = 0
KMC4 120949Z 19001KT 04/03 A3009 RMK A01 T00440029  RH  090%=      5-min Rain = 0
KMC4 120950Z 19002KT 04/03 A3009 RMK A01 T00440029  RH  090%=      5-min Rain = 0
KMC4 120951Z 20001KT 04/03 A3009 RMK A01 T00430029  RH  090%=      5-min Rain = 0
KMC4 120952Z 21002KT 04/03 A3009 RMK A01 T00430028  RH  090%=      5-min Rain = 0
KMC4 120953Z 21002KT 04/03 A3009 RMK A01 T00420028  RH  090%=      5-min Rain = 0
KMC4 120954Z 20002KT 04/03 A3009 RMK A01 T00420027  RH  090%=      5-min Rain = 0
KMC4 120955Z 22002KT 04/03 A3009 RMK A01 T00410027  RH  090%=      5-min Rain = 0
KMC4 120956Z 22002KT 04/03 A3009 RMK A01 T00400026  RH  091%=      5-min Rain = 0
KMC4 120957Z 23002KT 04/03 A3009 RMK A01 T00390025  RH  090%=      5-min Rain = 0
KMC4 120958Z 24002KT 04/02 A3009 RMK A01 T00380024  RH  090%=      5-min Rain = 0
KMC4 120959Z 24003KT 04/02 A3009 RMK A01 T00370024  RH  091%=      5-min Rain = 0
KMC4 121000Z 25003KT 04/02 A3009 RMK A01 T00370024  RH  091%=      5-min Rain = 0
KMC4 121001Z 26004KT 04/02 A301 RMK A01 T00360023  RH  091%=      5-min Rain = 0
KMC4 121002Z 26004KT 04/02 A301 RMK A01 T00350023  RH  092%=      5-min Rain = 0
KMC4 121003Z 26004KT 04/02 A301 RMK A01 T00350023  RH  092%=      5-min Rain = 0
KMC4 121004Z 27004KT 04/02 A301 RMK A01 T00350023  RH  092%=      5-min Rain = 0
KMC4 121005Z 27004KT 04/02 A301 RMK A01 T00350023  RH  092%=      5-min Rain = 0
KMC4 121006Z 26004KT 03/02 A301 RMK A01 T00340023  RH  093%=      5-min Rain = 0
KMC4 121007Z 27004KT 03/02 A301 RMK A01 T00340023  RH  093%=      5-min Rain = 0
KMC4 121008Z 27004KT 03/02 A301 RMK A01 T00340024  RH  093%=      5-min Rain = 0
KMC4 121009Z 26005KT 03/02 A301 RMK A01 T00340024  RH  093%=      5-min Rain = 0
KMC4 121010Z 26005KT 03/02 A301 RMK A01 T00340024  RH  093%=      5-min Rain = 0
KMC4 121011Z 26004KT 03/03 A301 RMK A01 T00340025  RH  094%=      5-min Rain = 0
KMC4 121012Z 26005KT 04/03 A301 RMK A01 T00350026  RH  094%=      5-min Rain = 0
KMC4 121013Z 26004KT 04/03 A301 RMK A01 T00360026  RH  093%=      5-min Rain = 0
KMC4 121014Z 26005KT 04/03 A301 RMK A01 T00350025  RH  093%=      5-min Rain = 0
KMC4 121015Z 26005KT 04/03 A301 RMK A01 T00350025  RH  093%=      5-min Rain = 0
KMC4 121016Z 26005KT 04/03 A301 RMK A01 T00350025  RH  093%=      5-min Rain = 0
KMC4 121017Z 25005KT 04/03 A301 RMK A01 T00350025  RH  093%=      5-min Rain = 0
KMC4 121018Z 25005KT 04/03 A301 RMK A01 T00350025  RH  093%=      5-min Rain = 0
KMC4 121019Z 25005KT 03/02 A301 RMK A01 T00340024  RH  093%=      5-min Rain = 0
KMC4 121020Z 25004KT 03/02 A3011 RMK A01 T00340024  RH  093%=      5-min Rain = 0
KMC4 121021Z 25004KT 03/02 A3011 RMK A01 T00340024  RH  093%=      5-min Rain = 0
KMC4 121022Z 25004KT 03/02 A3011 RMK A01 T00330024  RH  094%=      5-min Rain = 0
KMC4 121023Z 26004KT 03/02 A3011 RMK A01 T00330024  RH  094%=      5-min Rain = 0
KMC4 121024Z 26004KT 03/02 A3011 RMK A01 T00330024  RH  094%=      5-min Rain = 0
KMC4 121025Z 26005KT 03/02 A3011 RMK A01 T00330024  RH  094%=      5-min Rain = 0
KMC4 121026Z 26005KT 03/02 A3011 RMK A01 T00330024  RH  094%=      5-min Rain = 0
KMC4 121027Z 26004KT 03/03 A3011 RMK A01 T00330025  RH  094%=      5-min Rain = 0
KMC4 121028Z 27005KT 03/03 A3011 RMK A01 T00330026  RH  095%=      5-min Rain = 0
KMC4 121029Z 28004KT 03/03 A3011 RMK A01 T00340026  RH  095%=      5-min Rain = 0
KMC4 121030Z 28004KT 03/03 A3011 RMK A01 T00340027  RH  095%=      5-min Rain = 0
KMC4 121031Z 29004KT 03/03 A3011 RMK A01 T00340027  RH  095%=      5-min Rain = 0
KMC4 121032Z 28005KT 04/03 A3011 RMK A01 T00350027  RH  095%=      5-min Rain = 0
KMC4 121033Z 29005KT 04/03 A3011 RMK A01 T00350027  RH  095%=      5-min Rain = 0
KMC4 121034Z 28005KT 04/03 A3011 RMK A01 T00350027  RH  095%=      5-min Rain = 0
KMC4 121035Z 28005KT 04/03 A3011 RMK A01 T00350027  RH  094%=      5-min Rain = 0
KMC4 121036Z 28005KT 04/03 A3011 RMK A01 T00350027  RH  094%=      5-min Rain = 0
KMC4 121037Z 27006KT 04/03 A3011 RMK A01 T00350027  RH  094%=      5-min Rain = 0
KMC4 121038Z 27006KT 04/03 A3011 RMK A01 T00350026  RH  094%=      5-min Rain = 0
KMC4 121039Z 27006KT 03/03 A3011 RMK A01 T00340025  RH  094%=      5-min Rain = 0
KMC4 121040Z 27006KT 03/03 A3011 RMK A01 T00340025  RH  094%=      5-min Rain = 0
KMC4 121041Z 27006KT 03/03 A3011 RMK A01 T00330025  RH  094%=      5-min Rain = 0
KMC4 121042Z 27006KT 03/03 A3011 RMK A01 T00340025  RH  094%=      5-min Rain = 0
KMC4 121043Z 27006KT 03/03 A3011 RMK A01 T00340025  RH  095%=      5-min Rain = 0
KMC4 121044Z 27006KT 03/03 A3011 RMK A01 T00330026  RH  095%=      5-min Rain = 0
KMC4 121045Z 28006KT 03/03 A3011 RMK A01 T00330025  RH  095%=      5-min Rain = 0
KMC4 121046Z 28006KT 03/03 A3011 RMK A01 T00330025  RH  095%=      5-min Rain = 0
KMC4 121047Z 28006KT 03/03 A3011 RMK A01 T00330025  RH  095%=      5-min Rain = 0
KMC4 121048Z 28006KT 03/02 A3011 RMK A01 T00320024  RH  095%=      5-min Rain = 0
KMC4 121049Z 28006KT 03/03 A3011 RMK A01 T00320025  RH  095%=      5-min Rain = 0
KMC4 121050Z 28006KT 03/02 A3011 RMK A01 T00320024  RH  095%=      5-min Rain = 0
KMC4 121051Z 28006KT 03/02 A3011 RMK A01 T00310024  RH  095%=      5-min Rain = 0
KMC4 121052Z 28006KT 03/02 A3011 RMK A01 T00310023  RH  095%=      5-min Rain = 0
KMC4 121053Z 28006KT 03/02 A3011 RMK A01 T00310023  RH  095%=      5-min Rain = 0
KMC4 121054Z 28006KT 03/02 A3011 RMK A01 T00300023  RH  095%=      5-min Rain = 0
KMC4 121055Z 28006KT 03/02 A3011 RMK A01 T00300023  RH  095%=      5-min Rain = 0
KMC4 121056Z 28006KT 03/02 A3011 RMK A01 T00300023  RH  095%=      5-min Rain = 0
KMC4 121057Z 28005KT 03/02 A3011 RMK A01 T00300023  RH  095%=      5-min Rain = 0
KMC4 121058Z 29005KT 03/02 A3011 RMK A01 T00300023  RH  095%=      5-min Rain = 0
KMC4 121059Z 29005KT 03/02 A3011 RMK A01 T00290022  RH  095%=      5-min Rain = 0
KMC4 121100Z 29004KT 03/02 A3011 RMK A01 T00290022  RH  095%=      5-min Rain = 0
KMC4 121101Z 28005KT 03/02 A3011 RMK A01 T00290021  RH  095%=      5-min Rain = 0
KMC4 121102Z 28005KT 03/02 A3011 RMK A01 T00280021  RH  095%=      5-min Rain = 0
KMC4 121103Z 27005KT 03/02 A3011 RMK A01 T00280021  RH  095%=      5-min Rain = 0
KMC4 121104Z 27005KT 03/02 A3011 RMK A01 T00270020  RH  095%=      5-min Rain = 0
KMC4 121105Z 27005KT 03/02 A3011 RMK A01 T00270020  RH  095%=      5-min Rain = 0
KMC4 121106Z 27005KT 03/02 A3011 RMK A01 T00270020  RH  095%=      5-min Rain = 0
KMC4 121107Z 28004KT 03/02 A3011 RMK A01 T00270020  RH  095%=      5-min Rain = 0
KMC4 121108Z 27004KT 03/02 A3011 RMK A01 T00270020  RH  095%=      5-min Rain = 0
KMC4 121109Z 28005KT 03/02 A3011 RMK A01 T00260019  RH  095%=      5-min Rain = 0
KMC4 121110Z 27005KT 03/02 A3011 RMK A01 T00260019  RH  095%=      5-min Rain = 0
KMC4 121111Z 28005KT 03/02 A3011 RMK A01 T00260019  RH  095%=      5-min Rain = 0
KMC4 121112Z 29005KT 03/02 A3011 RMK A01 T00250019  RH  096%=      5-min Rain = 0
KMC4 121113Z 29005KT 03/02 A3011 RMK A01 T00250018  RH  096%=      5-min Rain = 0
KMC4 121114Z 30005KT 02/02 A3011 RMK A01 T00230017  RH  095%=      5-min Rain = 0
KMC4 121115Z 30005KT 02/02 A3011 RMK A01 T00230017  RH  096%=      5-min Rain = 0
KMC4 121116Z 30004KT 02/02 A3011 RMK A01 T00230017  RH  096%=      5-min Rain = 0
KMC4 121117Z 30005KT 02/02 A3011 RMK A01 T00230017  RH  096%=      5-min Rain = 0
KMC4 121118Z 30005KT 02/02 A3011 RMK A01 T00230017  RH  096%=      5-min Rain = 0
KMC4 121119Z 29005KT 02/02 A3011 RMK A01 T00230017  RH  096%=      5-min Rain = 0
KMC4 121120Z 29004KT 02/02 A3011 RMK A01 T00230017  RH  096%=      5-min Rain = 0
KMC4 121121Z 29004KT 02/02 A3011 RMK A01 T00230017  RH  096%=      5-min Rain = 0
KMC4 121122Z 29004KT 02/02 A3012 RMK A01 T00230018  RH  096%=      5-min Rain = 0
KMC4 121123Z 29004KT 02/02 A3012 RMK A01 T00230018  RH  096%=      5-min Rain = 0
KMC4 121124Z 28005KT 02/02 A3012 RMK A01 T00230017  RH  096%=      5-min Rain = 0
KMC4 121125Z 27004KT 02/02 A3012 RMK A01 T00220016  RH  096%=      5-min Rain = 0
KMC4 121126Z 28005KT 02/02 A3012 RMK A01 T00210015  RH  096%=      5-min Rain = 0
KMC4 121127Z 28006KT 02/01 A3012 RMK A01 T00200014  RH  096%=      5-min Rain = 0
KMC4 121128Z 27006KT 02/01 A3012 RMK A01 T00200014  RH  096%=      5-min Rain = 0
KMC4 121129Z 27006KT 02/01 A3012 RMK A01 T00200014  RH  096%=      5-min Rain = 0
KMC4 121130Z 28006KT 02/02 A3012 RMK A01 T00200015  RH  096%=      5-min Rain = 0
KMC4 121131Z 27006KT 02/01 A3012 RMK A01 T00200014  RH  096%=      5-min Rain = 0
KMC4 121132Z 27005KT 02/02 A3012 RMK A01 T00200015  RH  097%=      5-min Rain = 0
KMC4 121133Z 28005KT 02/02 A3013 RMK A01 T00200015  RH  097%=      5-min Rain = 0
KMC4 121134Z 28005KT 02/02 A3013 RMK A01 T00200015  RH  097%=      5-min Rain = 0
KMC4 121135Z 28006KT 02/02 A3013 RMK A01 T00200016  RH  097%=      5-min Rain = 0
KMC4 121136Z 29006KT 02/02 A3013 RMK A01 T00200016  RH  097%=      5-min Rain = 0
KMC4 121137Z 29006KT 02/02 A3013 RMK A01 T00190015  RH  097%=      5-min Rain = 0
KMC4 121138Z 28005KT 02/01 A3013 RMK A01 T00190014  RH  097%=      5-min Rain = 0
KMC4 121139Z 28005KT 02/01 A3013 RMK A01 T00190014  RH  097%=      5-min Rain = 0
KMC4 121140Z 29006KT 02/02 A3013 RMK A01 T00190015  RH  097%=      5-min Rain = 0
KMC4 121141Z 29006KT 02/02 A3013 RMK A01 T00190015  RH  097%=      5-min Rain = 0
KMC4 121142Z 27005KT 02/02 A3013 RMK A01 T00190015  RH  097%=      5-min Rain = 0
KMC4 121143Z 26004KT 02/02 A3013 RMK A01 T00190015  RH  097%=      5-min Rain = 0
KMC4 121144Z 27004KT 02/02 A3014 RMK A01 T00190015  RH  097%=      5-min Rain = 0
KMC4 121145Z 29005KT 02/02 A3014 RMK A01 T00190015  RH  097%=      5-min Rain = 0
KMC4 121146Z 28005KT 02/02 A3014 RMK A01 T00190015  RH  097%=      5-min Rain = 0
KMC4 121147Z 28005KT 02/01 A3014 RMK A01 T00190014  RH  097%=      5-min Rain = 0
KMC4 121148Z 28005KT 02/01 A3014 RMK A01 T00180014  RH  097%=      5-min Rain = 0
KMC4 121149Z 27005KT 02/01 A3014 RMK A01 T00180014  RH  097%=      5-min Rain = 0
KMC4 121150Z 27005KT 02/01 A3014 RMK A01 T00190014  RH  097%=      5-min Rain = 0
KMC4 121151Z 28005KT 02/01 A3014 RMK A01 T00190014  RH  097%=      5-min Rain = 0
KMC4 121152Z 30005KT 02/02 A3014 RMK A01 T00190015  RH  097%=      5-min Rain = 0
KMC4 121153Z 30004KT 02/01 A3014 RMK A01 T00190014  RH  097%=      5-min Rain = 0
KMC4 121154Z 29005KT 02/01 A3014 RMK A01 T00180014  RH  097%=      5-min Rain = 0
KMC4 121155Z 28006KT 02/01 A3014 RMK A01 T00180014  RH  097%=      5-min Rain = 0
KMC4 121156Z 28006KT 02/02 A3014 RMK A01 T00190015  RH  097%=      5-min Rain = 0
KMC4 121157Z 28006KT 02/02 A3015 RMK A01 T00190015  RH  097%=      5-min Rain = 0
KMC4 121158Z 29006KT 02/02 A3015 RMK A01 T00190015  RH  097%=      5-min Rain = 0
KMC4 121159Z 30006KT 02/02 A3015 RMK A01 T00190015  RH  097%=      5-min Rain = 0
KMC4 121200Z 29006KT 02/02 A3015 RMK A01 T00190015  RH  097%=      5-min Rain = 0
KMC4 121201Z 29006KT 02/02 A3015 RMK A01 T00190015  RH  097%=      5-min Rain = 0
KMC4 121202Z 29006KT 02/02 A3015 RMK A01 T00190015  RH  097%=      5-min Rain = 0
KMC4 121203Z 29006KT 02/02 A3015 RMK A01 T00200015  RH  097%=      5-min Rain = 0
KMC4 121204Z 30006KT 02/02 A3015 RMK A01 T00200016  RH  097%=      5-min Rain = 0
KMC4 121205Z 30006KT 02/02 A3015 RMK A01 T00200016  RH  097%=      5-min Rain = 0
KMC4 121206Z 29006KT 02/02 A3015 RMK A01 T00200016  RH  097%=      5-min Rain = 0
KMC4 121207Z 29006KT 02/02 A3015 RMK A01 T00190015  RH  097%=      5-min Rain = 0
KMC4 121208Z 29006KT 02/02 A3015 RMK A01 T00190015  RH  097%=      5-min Rain = 0
KMC4 121209Z 29006KT 02/01 A3015 RMK A01 T00180014  RH  097%=      5-min Rain = 0
KMC4 121210Z 29006KT 02/01 A3015 RMK A01 T00180014  RH  097%=      5-min Rain = 0
KMC4 121211Z 29006KT 02/01 A3015 RMK A01 T00180014  RH  097%=      5-min Rain = 0
KMC4 121212Z 29006KT 02/01 A3015 RMK A01 T00180014  RH  097%=      5-min Rain = 0
KMC4 121213Z 29006KT 02/01 A3015 RMK A01 T00170013  RH  097%=      5-min Rain = 0
KMC4 121214Z 30006KT 02/01 A3015 RMK A01 T00180014  RH  097%=      5-min Rain = 0
KMC4 121215Z 31005KT 02/01 A3015 RMK A01 T00180014  RH  097%=      5-min Rain = 0
KMC4 121216Z 30005KT 02/01 A3015 RMK A01 T00180014  RH  097%=      5-min Rain = 0
KMC4 121217Z 30005KT 02/01 A3015 RMK A01 T00180014  RH  097%=      5-min Rain = 0
KMC4 121218Z 30005KT 02/02 A3015 RMK A01 T00190015  RH  097%=      5-min Rain = 0
KMC4 121219Z 30005KT 02/02 A3015 RMK A01 T00190015  RH  097%=      5-min Rain = 0
KMC4 121220Z 31005KT 02/02 A3015 RMK A01 T00200016  RH  098%=      5-min Rain = 0
KMC4 121221Z 31005KT 02/02 A3015 RMK A01 T00200016  RH  098%=      5-min Rain = 0
KMC4 121222Z 31005KT 02/02 A3015 RMK A01 T00200017  RH  098%=      5-min Rain = 0
KMC4 121223Z 31005KT 02/02 A3015 RMK A01 T00200017  RH  098%=      5-min Rain = 0
KMC4 121224Z 31005KT 02/02 A3015 RMK A01 T00200017  RH  098%=      5-min Rain = 0
KMC4 121225Z 31005KT 02/02 A3015 RMK A01 T00210018  RH  098%=      5-min Rain = 0
KMC4 121226Z 32005KT 02/02 A3015 RMK A01 T00210018  RH  098%=      5-min Rain = 0
KMC4 121227Z 32005KT 02/02 A3015 RMK A01 T00210018  RH  098%=      5-min Rain = 0
KMC4 121228Z 32004KT 02/02 A3015 RMK A01 T00210018  RH  098%=      5-min Rain = 0
KMC4 121229Z 32004KT 02/02 A3015 RMK A01 T00210018  RH  098%=      5-min Rain = 0
KMC4 121230Z 32003KT 02/02 A3015 RMK A01 T00220018  RH  098%=      5-min Rain = 0
KMC4 121231Z 32004KT 02/02 A3015 RMK A01 T00220018  RH  098%=      5-min Rain = 0
KMC4 121232Z 32003KT 02/02 A3015 RMK A01 T00220018  RH  098%=      5-min Rain = 0
KMC4 121233Z 32003KT 02/02 A3015 RMK A01 T00220019  RH  098%=      5-min Rain = 0
KMC4 121234Z 32003KT 02/02 A3015 RMK A01 T00230019  RH  098%=      5-min Rain = 0
KMC4 121235Z 32003KT 02/02 A3015 RMK A01 T00230019  RH  097%=      5-min Rain = 0
KMC4 121236Z 32002KT 02/02 A3016 RMK A01 T00230019  RH  097%=      5-min Rain = 0
KMC4 121237Z 32002KT 02/02 A3016 RMK A01 T00230019  RH  097%=      5-min Rain = 0
KMC4 121238Z 31002KT 02/02 A3016 RMK A01 T00220018  RH  097%=      5-min Rain = 0
KMC4 121239Z 31001KT 02/02 A3016 RMK A01 T00220018  RH  097%=      5-min Rain = 0
KMC4 121240Z 32001KT 02/02 A3016 RMK A01 T00200015  RH  097%=      5-min Rain = 0
KMC4 121241Z 35002KT 02/01 A3016 RMK A01 T00180014  RH  097%=      5-min Rain = 0
KMC4 121242Z 33003KT 02/01 A3016 RMK A01 T00170012  RH  097%=      5-min Rain = 0
KMC4 121243Z 29002KT 02/01 A3016 RMK A01 T00170012  RH  097%=      5-min Rain = 0
KMC4 121244Z 28002KT 02/01 A3016 RMK A01 T00170012  RH  097%=      5-min Rain = 0
KMC4 121245Z 29002KT 02/01 A3016 RMK A01 T00170012  RH  097%=      5-min Rain = 0
KMC4 121246Z 30002KT 02/01 A3016 RMK A01 T00160010  RH  096%=      5-min Rain = 0
KMC4 121247Z 29002KT 02/01 A3016 RMK A01 T00150009  RH  096%=      5-min Rain = 0
KMC4 121248Z 29002KT 01/01 A3016 RMK A01 T00140008  RH  096%=      5-min Rain = 0
KMC4 121249Z 29002KT 01/01 A3016 RMK A01 T00130007  RH  096%=      5-min Rain = 0
KMC4 121250Z 29002KT 01/01 A3016 RMK A01 T00120006  RH  096%=      5-min Rain = 0
KMC4 121251Z 30002KT 01/01 A3016 RMK A01 T00110006  RH  096%=      5-min Rain = 0
KMC4 121252Z 30002KT 01/01 A3016 RMK A01 T00110006  RH  096%=      5-min Rain = 0
KMC4 121253Z 31002KT 01/01 A3016 RMK A01 T00110006  RH  096%=      5-min Rain = 0
KMC4 121254Z 29001KT 01/01 A3016 RMK A01 T00110006  RH  096%=      5-min Rain = 0
KMC4 121255Z 28002KT 01/01 A3016 RMK A01 T00110006  RH  097%=      5-min Rain = 0
KMC4 121256Z 29003KT 01/01 A3017 RMK A01 T00110007  RH  097%=      5-min Rain = 0
KMC4 121257Z 28003KT 01/01 A3017 RMK A01 T00110007  RH  097%=      5-min Rain = 0
KMC4 121258Z 28003KT 01/01 A3017 RMK A01 T00110007  RH  097%=      5-min Rain = 0
KMC4 121259Z 28003KT 01/01 A3017 RMK A01 T00110007  RH  097%=      5-min Rain = 0
KMC4 121300Z 28003KT 01/01 A3017 RMK A01 T00110006  RH  097%=      5-min Rain = 0
KMC4 121301Z 29003KT 01/01 A3017 RMK A01 T00110006  RH  097%=      5-min Rain = 0
KMC4 121302Z 29003KT 01/01 A3017 RMK A01 T00110006  RH  097%=      5-min Rain = 0
KMC4 121303Z 29003KT 01/01 A3017 RMK A01 T00110007  RH  097%=      5-min Rain = 0
KMC4 121304Z 29003KT 01/01 A3017 RMK A01 T00120007  RH  097%=      5-min Rain = 0
KMC4 121305Z 29003KT 01/01 A3017 RMK A01 T00120008  RH  097%=      5-min Rain = 0
KMC4 121306Z 29004KT 01/01 A3017 RMK A01 T00140010  RH  097%=      5-min Rain = 0
KMC4 121307Z 29004KT 02/01 A3017 RMK A01 T00150011  RH  097%=      5-min Rain = 0
KMC4 121308Z 29004KT 02/01 A3017 RMK A01 T00150011  RH  097%=      5-min Rain = 0
KMC4 121309Z 29004KT 02/01 A3017 RMK A01 T00160012  RH  097%=      5-min Rain = 0
KMC4 121310Z 29004KT 02/01 A3017 RMK A01 T00160012  RH  097%=      5-min Rain = 0
KMC4 121311Z 29004KT 02/01 A3017 RMK A01 T00170013  RH  097%=      5-min Rain = 0
KMC4 121312Z 29004KT 02/01 A3018 RMK A01 T00170013  RH  097%=      5-min Rain = 0
KMC4 121313Z 29004KT 02/01 A3018 RMK A01 T00170013  RH  097%=      5-min Rain = 0
KMC4 121314Z 28004KT 02/01 A3018 RMK A01 T00170013  RH  097%=      5-min Rain = 0
KMC4 121315Z 29004KT 02/01 A3018 RMK A01 T00170012  RH  097%=      5-min Rain = 0
KMC4 121316Z 29004KT 02/01 A3018 RMK A01 T00160011  RH  097%=      5-min Rain = 0
KMC4 121317Z 28004KT 02/01 A3018 RMK A01 T00160011  RH  097%=      5-min Rain = 0
KMC4 121318Z 27003KT 02/01 A3018 RMK A01 T00160011  RH  097%=      5-min Rain = 0
KMC4 121319Z 26003KT 02/01 A3018 RMK A01 T00150010  RH  097%=      5-min Rain = 0
KMC4 121320Z 27003KT 01/01 A3018 RMK A01 T00140009  RH  096%=      5-min Rain = 0
KMC4 121321Z 27003KT 01/01 A3018 RMK A01 T00130008  RH  096%=      5-min Rain = 0
KMC4 121322Z 27003KT 01/01 A3018 RMK A01 T00130008  RH  096%=      5-min Rain = 0
KMC4 121323Z 27003KT 01/01 A3018 RMK A01 T00120007  RH  096%=      5-min Rain = 0
KMC4 121324Z 27004KT 01/01 A3018 RMK A01 T00120006  RH  096%=      5-min Rain = 0
KMC4 121325Z 27003KT 01/01 A3018 RMK A01 T00110006  RH  096%=      5-min Rain = 0
KMC4 121326Z 27003KT 01/01 A3018 RMK A01 T00110006  RH  096%=      5-min Rain = 0
KMC4 121327Z 27003KT 01/01 A3018 RMK A01 T00100005  RH  096%=      5-min Rain = 0
KMC4 121328Z 27004KT 01/01 A3018 RMK A01 T00100005  RH  096%=      5-min Rain = 0
KMC4 121329Z 27004KT 01/01 A3018 RMK A01 T00100005  RH  096%=      5-min Rain = 0
KMC4 121330Z 27004KT 01/01 A3018 RMK A01 T00100005  RH  097%=      5-min Rain = 0
KMC4 121331Z 27004KT 01/01 A3018 RMK A01 T00100005  RH  097%=      5-min Rain = 0
KMC4 121332Z 26004KT 01/01 A3018 RMK A01 T00100005  RH  097%=      5-min Rain = 0
KMC4 121333Z 26004KT 01/01 A3018 RMK A01 T00100005  RH  097%=      5-min Rain = 0
KMC4 121334Z 27004KT 01/01 A3018 RMK A01 T00090005  RH  097%=      5-min Rain = 0
KMC4 121335Z 27004KT 01/01 A3018 RMK A01 T00100005  RH  097%=      5-min Rain = 0
KMC4 121336Z 28004KT 01/01 A3018 RMK A01 T00100005  RH  097%=      5-min Rain = 0
KMC4 121337Z 28004KT 01/01 A3018 RMK A01 T00090005  RH  097%=      5-min Rain = 0
KMC4 121338Z 27004KT 01/01 A3018 RMK A01 T00100005  RH  097%=      5-min Rain = 0
KMC4 121339Z 27004KT 01/01 A3018 RMK A01 T00100005  RH  097%=      5-min Rain = 0
KMC4 121340Z 28004KT 01/01 A3019 RMK A01 T00100006  RH  097%=      5-min Rain = 0
KMC4 121341Z 27004KT 01/01 A3019 RMK A01 T00110007  RH  097%=      5-min Rain = 0
KMC4 121342Z 27004KT 01/01 A3019 RMK A01 T00110007  RH  097%=      5-min Rain = 0
KMC4 121343Z 27004KT 01/01 A3019 RMK A01 T00120008  RH  097%=      5-min Rain = 0
KMC4 121344Z 27004KT 01/01 A3019 RMK A01 T00110008  RH  097%=      5-min Rain = 0
KMC4 121345Z 27004KT 01/01 A3019 RMK A01 T00110007  RH  097%=      5-min Rain = 0
KMC4 121346Z 27004KT 01/01 A3019 RMK A01 T00120008  RH  097%=      5-min Rain = 0
KMC4 121347Z 27004KT 01/01 A3019 RMK A01 T00120007  RH  097%=      5-min Rain = 0
KMC4 121348Z 27005KT 01/01 A3019 RMK A01 T00120008  RH  097%=      5-min Rain = 0
KMC4 121349Z 28005KT 01/01 A3019 RMK A01 T00120008  RH  097%=      5-min Rain = 0
KMC4 121350Z 27005KT 01/01 A3019 RMK A01 T00120007  RH  097%=      5-min Rain = 0
KMC4 121351Z 27004KT 01/01 A3019 RMK A01 T00120008  RH  097%=      5-min Rain = 0
KMC4 121352Z 27004KT 01/01 A3019 RMK A01 T00120008  RH  097%=      5-min Rain = 0
KMC4 121353Z 27004KT 01/01 A3019 RMK A01 T00120008  RH  097%=      5-min Rain = 0
KMC4 121354Z 26004KT 01/01 A3019 RMK A01 T00110007  RH  097%=      5-min Rain = 0
KMC4 121355Z 27004KT 01/01 A302 RMK A01 T00110007  RH  097%=      5-min Rain = 0
KMC4 121356Z 27004KT 01/01 A302 RMK A01 T00110007  RH  097%=      5-min Rain = 0
KMC4 121357Z 26005KT 01/01 A302 RMK A01 T00100006  RH  097%=      5-min Rain = 0
KMC4 121358Z 26005KT 01/01 A302 RMK A01 T00100006  RH  097%=      5-min Rain = 0
KMC4 121359Z 26005KT 01/01 A302 RMK A01 T00100006  RH  097%=      5-min Rain = 0
KMC4 121400Z 26005KT 01/01 A302 RMK A01 T00110006  RH  097%=      5-min Rain = 0
KMC4 121401Z 26005KT 01/01 A302 RMK A01 T00110006  RH  097%=      5-min Rain = 0
KMC4 121402Z 26005KT 01/01 A302 RMK A01 T00110007  RH  097%=      5-min Rain = 0
KMC4 121403Z 26005KT 01/01 A302 RMK A01 T00120007  RH  097%=      5-min Rain = 0
KMC4 121404Z 26005KT 01/01 A302 RMK A01 T00110007  RH  097%=      5-min Rain = 0
KMC4 121405Z 26005KT 01/01 A302 RMK A01 T00120007  RH  097%=      5-min Rain = 0
KMC4 121406Z 26006KT 01/01 A302 RMK A01 T00120007  RH  097%=      5-min Rain = 0
KMC4 121407Z 26006KT 01/01 A302 RMK A01 T00120008  RH  097%=      5-min Rain = 0
KMC4 121408Z 26006KT 01/01 A302 RMK A01 T00120008  RH  097%=      5-min Rain = 0
KMC4 121409Z 27006KT 01/01 A302 RMK A01 T00130009  RH  097%=      5-min Rain = 0
KMC4 121410Z 27006KT 01/01 A302 RMK A01 T00130009  RH  097%=      5-min Rain = 0
KMC4 121411Z 27006KT 01/01 A302 RMK A01 T00130009  RH  097%=      5-min Rain = 0
KMC4 121412Z 27006KT 01/01 A302 RMK A01 T00130009  RH  097%=      5-min Rain = 0
KMC4 121413Z 26006KT 01/01 A302 RMK A01 T00130009  RH  097%=      5-min Rain = 0
KMC4 121414Z 26006KT 01/01 A302 RMK A01 T00130009  RH  097%=      5-min Rain = 0
KMC4 121415Z 26006KT 01/01 A302 RMK A01 T00130009  RH  097%=      5-min Rain = 0
KMC4 121416Z 28005KT 01/01 A3021 RMK A01 T00130008  RH  097%=      5-min Rain = 0
KMC4 121417Z 28005KT 01/01 A3021 RMK A01 T00130009  RH  097%=      5-min Rain = 0
KMC4 121418Z 28005KT 01/01 A3021 RMK A01 T00140010  RH  097%=      5-min Rain = 0
KMC4 121419Z 26006KT 02/01 A302 RMK A01 T00150010  RH  097%=      5-min Rain = 0
KMC4 121420Z 26006KT 02/01 A302 RMK A01 T00160011  RH  097%=      5-min Rain = 0
KMC4 121421Z 26007KT 02/01 A3021 RMK A01 T00170012  RH  097%=      5-min Rain = 0
KMC4 121422Z 27006KT 02/01 A3021 RMK A01 T00180013  RH  097%=      5-min Rain = 0
KMC4 121423Z 28006KT 02/01 A3021 RMK A01 T00180013  RH  096%=      5-min Rain = 0
KMC4 121424Z 28005KT 02/01 A3021 RMK A01 T00190014  RH  096%=      5-min Rain = 0
KMC4 121425Z 28005KT 02/02 A3021 RMK A01 T00200015  RH  096%=      5-min Rain = 0
KMC4 121426Z 28004KT 02/02 A3021 RMK A01 T00210015  RH  096%=      5-min Rain = 0
KMC4 121427Z 29004KT 02/02 A3021 RMK A01 T00210016  RH  096%=      5-min Rain = 0
KMC4 121428Z 28004KT 02/02 A3021 RMK A01 T00220016  RH  096%=      5-min Rain = 0
KMC4 121429Z 28004KT 02/02 A3021 RMK A01 T00220016  RH  096%=      5-min Rain = 0
KMC4 121430Z 28005KT 02/02 A3021 RMK A01 T00230017  RH  096%=      5-min Rain = 0
KMC4 121431Z 28005KT 02/02 A3021 RMK A01 T00240018  RH  096%=      5-min Rain = 0
KMC4 121432Z 28005KT 03/02 A3021 RMK A01 T00250019  RH  096%=      5-min Rain = 0
KMC4 121433Z 28005KT 03/02 A3021 RMK A01 T00260020  RH  096%=      5-min Rain = 0
KMC4 121434Z 28004KT 03/02 A3021 RMK A01 T00270020  RH  096%=      5-min Rain = 0
KMC4 121435Z 29004KT 03/02 A3021 RMK A01 T00270021  RH  095%=      5-min Rain = 0
KMC4 121436Z 28004KT 03/02 A3022 RMK A01 T00280021  RH  095%=      5-min Rain = 0
KMC4 121437Z 28004KT 03/02 A3022 RMK A01 T00290022  RH  095%=      5-min Rain = 0
KMC4 121438Z 28004KT 03/02 A3022 RMK A01 T00300022  RH  095%=      5-min Rain = 0
KMC4 121439Z 28004KT 03/02 A3022 RMK A01 T00300023  RH  095%=      5-min Rain = 0
KMC4 121440Z 28004KT 03/02 A3022 RMK A01 T00310024  RH  095%=      5-min Rain = 0
KMC4 121441Z 28004KT 03/02 A3022 RMK A01 T00320024  RH  095%=      5-min Rain = 0
KMC4 121442Z 27004KT 03/03 A3022 RMK A01 T00330025  RH  095%=      5-min Rain = 0
KMC4 121443Z 28004KT 03/03 A3022 RMK A01 T00330025  RH  095%=      5-min Rain = 0
KMC4 121444Z 28004KT 03/03 A3022 RMK A01 T00340026  RH  094%=      5-min Rain = 0
KMC4 121445Z 29004KT 04/03 A3022 RMK A01 T00350027  RH  094%=      5-min Rain = 0
KMC4 121446Z 28004KT 04/03 A3022 RMK A01 T00360027  RH  094%=      5-min Rain = 0
KMC4 121447Z 28004KT 04/03 A3022 RMK A01 T00360027  RH  094%=      5-min Rain = 0
KMC4 121448Z 28004KT 04/03 A3022 RMK A01 T00360027  RH  094%=      5-min Rain = 0
KMC4 121449Z 28005KT 04/03 A3022 RMK A01 T00370027  RH  093%=      5-min Rain = 0
KMC4 121450Z 28005KT 04/03 A3022 RMK A01 T00380028  RH  093%=      5-min Rain = 0
KMC4 121451Z 27005KT 04/03 A3022 RMK A01 T00380027  RH  093%=      5-min Rain = 0
KMC4 121452Z 28005KT 04/03 A3022 RMK A01 T00380027  RH  093%=      5-min Rain = 0
KMC4 121453Z 28005KT 04/03 A3022 RMK A01 T00390028  RH  092%=      5-min Rain = 0
KMC4 121454Z 28005KT 04/03 A3022 RMK A01 T00390027  RH  092%=      5-min Rain = 0
KMC4 121455Z 28005KT 04/03 A3022 RMK A01 T00400028  RH  092%=      5-min Rain = 0
KMC4 121456Z 28004KT 04/03 A3022 RMK A01 T00400029  RH  092%=      5-min Rain = 0
KMC4 121457Z 29005KT 04/03 A3022 RMK A01 T00410029  RH  092%=      5-min Rain = 0
KMC4 121458Z 28005KT 04/03 A3023 RMK A01 T00410029  RH  092%=      5-min Rain = 0
KMC4 121459Z 28005KT 04/03 A3023 RMK A01 T00410029  RH  092%=      5-min Rain = 0
KMC4 121500Z 28005KT 04/03 A3023 RMK A01 T00420029  RH  091%=      5-min Rain = 0
KMC4 121501Z 28005KT 04/03 A3023 RMK A01 T00420029  RH  091%=      5-min Rain = 0
KMC4 121502Z 28006KT 04/03 A3023 RMK A01 T00420029  RH  091%=      5-min Rain = 0
KMC4 121503Z 28006KT 04/03 A3023 RMK A01 T00430029  RH  091%=      5-min Rain = 0
KMC4 121504Z 29006KT 04/03 A3023 RMK A01 T00430028  RH  090%=      5-min Rain = 0
KMC4 121505Z 28005KT 04/03 A3023 RMK A01 T00430028  RH  090%=      5-min Rain = 0
KMC4 121506Z 28005KT 04/03 A3023 RMK A01 T00430029  RH  090%=      5-min Rain = 0
KMC4 121507Z 29005KT 04/03 A3023 RMK A01 T00430029  RH  090%=      5-min Rain = 0
KMC4 121508Z 29005KT 04/03 A3023 RMK A01 T00440029  RH  090%=      5-min Rain = 0
KMC4 121509Z 28005KT 04/03 A3023 RMK A01 T00440030  RH  090%=      5-min Rain = 0
KMC4 121510Z 29005KT 05/03 A3023 RMK A01 T00450030  RH  091%=      5-min Rain = 0
KMC4 121511Z 29006KT 05/03 A3023 RMK A01 T00450031  RH  091%=      5-min Rain = 0
KMC4 121512Z 30005KT 05/03 A3023 RMK A01 T00450030  RH  090%=      5-min Rain = 0
KMC4 121513Z 29004KT 05/03 A3023 RMK A01 T00460031  RH  090%=      5-min Rain = 0
KMC4 121514Z 29005KT 05/03 A3023 RMK A01 T00470032  RH  090%=      5-min Rain = 0
KMC4 121515Z 29006KT 05/03 A3023 RMK A01 T00470032  RH  090%=      5-min Rain = 0
KMC4 121516Z 29006KT 05/03 A3023 RMK A01 T00470031  RH  089%=      5-min Rain = 0
KMC4 121517Z 30005KT 05/03 A3023 RMK A01 T00480030  RH  089%=      5-min Rain = 0
KMC4 121518Z 30006KT 05/03 A3023 RMK A01 T00480031  RH  089%=      5-min Rain = 0
KMC4 121519Z 31006KT 05/03 A3023 RMK A01 T00490032  RH  089%=      5-min Rain = 0
KMC4 121520Z 30006KT 05/03 A3023 RMK A01 T00500032  RH  088%=      5-min Rain = 0
KMC4 121521Z 30006KT 05/03 A3023 RMK A01 T00490031  RH  088%=      5-min Rain = 0
KMC4 121522Z 29007KT 05/03 A3023 RMK A01 T00500032  RH  088%=      5-min Rain = 0
KMC4 121523Z 29006KT 05/03 A3023 RMK A01 T00500031  RH  087%=      5-min Rain = 0
KMC4 121524Z 29007KT 05/03 A3023 RMK A01 T00500030  RH  087%=      5-min Rain = 0
KMC4 121525Z 30006KT 05/03 A3023 RMK A01 T00500032  RH  088%=      5-min Rain = 0
KMC4 121526Z 29006KT 05/03 A3024 RMK A01 T00510031  RH  087%=      5-min Rain = 0
KMC4 121527Z 29005KT 05/03 A3024 RMK A01 T00510032  RH  087%=      5-min Rain = 0
KMC4 121528Z 29006KT 05/03 A3024 RMK A01 T00520032  RH  087%=      5-min Rain = 0
KMC4 121529Z 29007KT 05/03 A3024 RMK A01 T00530033  RH  087%=      5-min Rain = 0
KMC4 121530Z 29005KT 05/03 A3024 RMK A01 T00530032  RH  086%=      5-min Rain = 0
KMC4 121531Z 29007KT 05/03 A3024 RMK A01 T00540034  RH  087%=      5-min Rain = 0
KMC4 121532Z 28006KT 06/03 A3024 RMK A01 T00550034  RH  086%=      5-min Rain = 0
KMC4 121533Z 29007KT 06/03 A3024 RMK A01 T00550033  RH  085%=      5-min Rain = 0
KMC4 121534Z 29006KT 06/03 A3024 RMK A01 T00560032  RH  085%=      5-min Rain = 0
KMC4 121535Z 29006KT 06/03 A3024 RMK A01 T00560032  RH  085%=      5-min Rain = 0
KMC4 121536Z 30006KT 06/03 A3024 RMK A01 T00570033  RH  085%=      5-min Rain = 0
KMC4 121537Z 28006KT 06/03 A3024 RMK A01 T00570033  RH  084%=      5-min Rain = 0
KMC4 121538Z 29007KT 06/03 A3024 RMK A01 T00580032  RH  084%=      5-min Rain = 0
KMC4 121539Z 28006KT 06/03 A3024 RMK A01 T00580032  RH  083%=      5-min Rain = 0
KMC4 121540Z 29008KT 06/03 A3025 RMK A01 T00590032  RH  083%=      5-min Rain = 0
KMC4 121541Z 29008KT 06/03 A3025 RMK A01 T00590031  RH  082%=      5-min Rain = 0
KMC4 121542Z 29007KT 06/03 A3025 RMK A01 T00590031  RH  082%=      5-min Rain = 0
KMC4 121543Z 29006KT 06/03 A3025 RMK A01 T00600032  RH  082%=      5-min Rain = 0
KMC4 121544Z 29006KT 06/03 A3025 RMK A01 T00600031  RH  082%=      5-min Rain = 0
KMC4 121545Z 30006KT 06/03 A3025 RMK A01 T00610032  RH  081%=      5-min Rain = 0
KMC4 121546Z 30004KT 06/03 A3025 RMK A01 T00630034  RH  082%=      5-min Rain = 0
KMC4 121547Z 29006KT 06/04 A3025 RMK A01 T00640035  RH  081%=      5-min Rain = 0
KMC4 121548Z 30006KT 07/03 A3025 RMK A01 T00650034  RH  081%=      5-min Rain = 0
KMC4 121549Z 30005KT 07/04 A3025 RMK A01 T00660035  RH  081%=      5-min Rain = 0
KMC4 121550Z 30006KT 07/03 A3026 RMK A01 T00670034  RH  080%=      5-min Rain = 0
KMC4 121551Z 28005KT 07/03 A3026 RMK A01 T00670032  RH  078%=      5-min Rain = 0
KMC4 121552Z 29006KT 07/03 A3026 RMK A01 T00670032  RH  079%=      5-min Rain = 0
KMC4 121553Z 28006KT 07/03 A3026 RMK A01 T00670034  RH  079%=      5-min Rain = 0
KMC4 121554Z 28006KT 07/03 A3026 RMK A01 T00680033  RH  079%=      5-min Rain = 0
KMC4 121555Z 28006KT 07/03 A3026 RMK A01 T00680031  RH  077%=      5-min Rain = 0
KMC4 121556Z 29006KT 07/03 A3026 RMK A01 T00690031  RH  077%=      5-min Rain = 0
KMC4 121557Z 29005KT 07/03 A3026 RMK A01 T00690030  RH  076%=      5-min Rain = 0
KMC4 121558Z 29006KT 07/03 A3026 RMK A01 T00700030  RH  076%=      5-min Rain = 0
KMC4 121559Z 28006KT 07/03 A3026 RMK A01 T00700028  RH  075%=      5-min Rain = 0
KMC4 121600Z 28007KT 07/03 A3026 RMK A01 T00700032  RH  077%=      5-min Rain = 0
KMC4 121601Z 28008KT 07/03 A3026 RMK A01 T00710034  RH  077%=      5-min Rain = 0
KMC4 121602Z 28006KT 07/03 A3027 RMK A01 T00700031  RH  076%=      5-min Rain = 0
KMC4 121603Z 29007KT 07/03 A3027 RMK A01 T00710033  RH  077%=      5-min Rain = 0
KMC4 121604Z 29008KT 07/03 A3027 RMK A01 T00710032  RH  076%=      5-min Rain = 0
KMC4 121605Z 28007KT 07/03 A3027 RMK A01 T00720033  RH  076%=      5-min Rain = 0
KMC4 121606Z 28006KT 07/03 A3027 RMK A01 T00720031  RH  075%=      5-min Rain = 0
KMC4 121607Z 28007KT 07/03 A3027 RMK A01 T00720031  RH  075%=      5-min Rain = 0
KMC4 121608Z 29007KT 07/03 A3027 RMK A01 T00720030  RH  074%=      5-min Rain = 0
KMC4 121609Z 28007KT 07/03 A3027 RMK A01 T00720032  RH  075%=      5-min Rain = 0
KMC4 121610Z 28007KT 07/03 A3027 RMK A01 T00730033  RH  075%=      5-min Rain = 0
KMC4 121611Z 28007KT 08/04 A3027 RMK A01 T00750035  RH  076%=      5-min Rain = 0
KMC4 121612Z 30008KT 08/03 A3027 RMK A01 T00750032  RH  074%=      5-min Rain = 0
KMC4 121613Z 29007KT 08/03 A3027 RMK A01 T00760031  RH  073%=      5-min Rain = 0
KMC4 121614Z 28006KT 08/03 A3027 RMK A01 T00750031  RH  074%=      5-min Rain = 0
KMC4 121615Z 28007KT 08/03 A3027 RMK A01 T00750032  RH  074%=      5-min Rain = 0
KMC4 121616Z 29007KT 08/03 A3028 RMK A01 T00750033  RH  074%=      5-min Rain = 0
KMC4 121617Z 29008KT 08/03 A3028 RMK A01 T00760029  RH  072%=      5-min Rain = 0
KMC4 121618Z 29007KT 08/03 A3028 RMK A01 T00760028  RH  071%=      5-min Rain = 0
KMC4 121619Z 29009KT 08/03 A3028 RMK A01 T00770030  RH  072%=      5-min Rain = 0
KMC4 121620Z 30008KT 08/03 A3028 RMK A01 T00790028  RH  070%=      5-min Rain = 0
KMC4 121621Z 31007KT 08/02 A3028 RMK A01 T00810023  RH  067%=      5-min Rain = 0
KMC4 121622Z 33009KT 08/02 A3028 RMK A01 T00830020  RH  065%=      5-min Rain = 0
KMC4 121623Z 34010KT 08/02 A3028 RMK A01 T00840016  RH  062%=      5-min Rain = 0
KMC4 121624Z 34008KT 09/02 A3028 RMK A01 T00860017  RH  062%=      5-min Rain = 0
KMC4 121625Z 33008KT 09/02 A3028 RMK A01 T00870017  RH  061%=      5-min Rain = 0
KMC4 121626Z 34008KT 09/02 A3028 RMK A01 T00880019  RH  062%=      5-min Rain = 0
KMC4 121627Z 33011KT 09/02 A3028 RMK A01 T00890016  RH  060%=      5-min Rain = 0
KMC4 121628Z 34013KT 09/01 A3028 RMK A01 T00890013  RH  059%=      5-min Rain = 0
KMC4 121629Z 33013KT 09/01 A3028 RMK A01 T00890013  RH  059%=      5-min Rain = 0
KMC4 121630Z 35010KT 09/01 A3028 RMK A01 T00880011  RH  059%=      5-min Rain = 0
KMC4 121631Z 33009KT 09/01 A3028 RMK A01 T00870011  RH  059%=      5-min Rain = 0
KMC4 121632Z 32014KT 09/02 A3028 RMK A01 T00880015  RH  060%=      5-min Rain = 0
KMC4 121633Z 33011KT 09/01 A3028 RMK A01 T00890014  RH  059%=      5-min Rain = 0
KMC4 121634Z 33014KT 09/02 A3028 RMK A01 T00890015  RH  060%=      5-min Rain = 0
KMC4 121635Z 32012KT 09/01 A3028 RMK A01 T00900012  RH  058%=      5-min Rain = 0
KMC4 121636Z 33014KT 09/01 A3028 RMK A01 T00890012  RH  058%=      5-min Rain = 0
KMC4 121637Z 33012KT 09/01 A3028 RMK A01 T00890011  RH  058%=      5-min Rain = 0
KMC4 121638Z 34010KT 09/01 A3028 RMK A01 T00880011  RH  058%=      5-min Rain = 0
KMC4 121639Z 34010KT 09/01 A3028 RMK A01 T00890014  RH  059%=      5-min Rain = 0
KMC4 121640Z 34013KT 09/01 A3028 RMK A01 T00900013  RH  058%=      5-min Rain = 0
KMC4 121641Z 34013KT 09/01 A3028 RMK A01 T00910011  RH  057%=      5-min Rain = 0
KMC4 121642Z 34011KT 09/01 A3028 RMK A01 T00910008  RH  056%=      5-min Rain = 0
KMC4 121643Z 34009KT 09/01 A3028 RMK A01 T00910008  RH  056%=      5-min Rain = 0
KMC4 121644Z 35010G16KT 09/01 A3028 RMK A01 T00920011  RH  057%=      5-min Rain = 0
KMC4 121645Z 33010KT 09/01 A3028 RMK A01 T00920010  RH  056%=      5-min Rain = 0
KMC4 121646Z 34011KT 09/01 A3028 RMK A01 T00930013  RH  058%=      5-min Rain = 0
KMC4 121647Z 35010KT 09/01 A3028 RMK A01 T00930011  RH  056%=      5-min Rain = 0
KMC4 121648Z 34012KT 09/01 A3028 RMK A01 T00940012  RH  056%=      5-min Rain = 0
KMC4 121649Z 34013KT 10/01 A3028 RMK A01 T00950009  RH  055%=      5-min Rain = 0
KMC4 121650Z 33011KT 09/01 A3028 RMK A01 T00940010  RH  056%=      5-min Rain = 0
KMC4 121651Z 34012KT 10/01 A3028 RMK A01 T00950009  RH  055%=      5-min Rain = 0
KMC4 121652Z 34015KT 10/01 A3028 RMK A01 T00950006  RH  054%=      5-min Rain = 0
KMC4 121653Z 34015G20KT 09/01 A3028 RMK A01 T00940006  RH  054%=      5-min Rain = 0
KMC4 121654Z 34016KT 09/00 A3028 RMK A01 T00930004  RH  054%=      5-min Rain = 0
KMC4 121655Z 35013KT 09/00 A3028 RMK A01 T00930004  RH  054%=      5-min Rain = 0
KMC4 121656Z 35011KT 09/00 A3028 RMK A01 T00920004  RH  054%=      5-min Rain = 0
KMC4 121657Z 35010KT 09/01 A3028 RMK A01 T00930007  RH  055%=      5-min Rain = 0
KMC4 121658Z 35010KT 10/01 A3028 RMK A01 T00950008  RH  055%=      5-min Rain = 0
KMC4 121659Z 34008KT 10/01 A3028 RMK A01 T00950007  RH  054%=      5-min Rain = 0
KMC4 121700Z 34008KT 10/01 A3028 RMK A01 T00970011  RH  055%=      5-min Rain = 0
KMC4 121701Z 32011KT 10/01 A3028 RMK A01 T00980012  RH  055%=      5-min Rain = 0
KMC4 121702Z 33014KT 10/01 A3028 RMK A01 T00990010  RH  054%=      5-min Rain = 0
KMC4 121703Z 34013KT 10/01 A3028 RMK A01 T00980007  RH  053%=      5-min Rain = 0
KMC4 121704Z 33010KT 10/01 A3028 RMK A01 T00970010  RH  054%=      5-min Rain = 0
KMC4 121705Z 33013KT 10/01 A3028 RMK A01 T00990010  RH  054%=      5-min Rain = 0
KMC4 121706Z 32011KT 10/01 A3028 RMK A01 T00980009  RH  054%=      5-min Rain = 0
KMC4 121707Z 33011KT 10/01 A3028 RMK A01 T01000013  RH  055%=      5-min Rain = 0
KMC4 121708Z 33013KT 10/01 A3028 RMK A01 T01000012  RH  054%=      5-min Rain = 0
KMC4 121709Z 32012KT 10/01 A3028 RMK A01 T01000012  RH  054%=      5-min Rain = 0
KMC4 121710Z 32013KT 10/01 A3028 RMK A01 T01010011  RH  054%=      5-min Rain = 0
KMC4 121711Z 33014KT 10/01 A3028 RMK A01 T01000009  RH  053%=      5-min Rain = 0
KMC4 121712Z 34015KT 10/01 A3028 RMK A01 T01000009  RH  053%=      5-min Rain = 0
KMC4 121713Z 34015KT 10/01 A3028 RMK A01 T00990008  RH  053%=      5-min Rain = 0
KMC4 121714Z 34014KT 10/01 A3028 RMK A01 T00980007  RH  053%=      5-min Rain = 0
KMC4 121715Z 34013KT 10/01 A3028 RMK A01 T00980008  RH  054%=      5-min Rain = 0
KMC4 121716Z 34011KT 10/01 A3028 RMK A01 T00980008  RH  054%=      5-min Rain = 0
KMC4 121717Z 33012KT 10/01 A3028 RMK A01 T00990010  RH  054%=      5-min Rain = 0
KMC4 121718Z 33016KT 10/01 A3028 RMK A01 T01000010  RH  054%=      5-min Rain = 0
KMC4 121719Z 34013KT 10/01 A3028 RMK A01 T00990007  RH  053%=      5-min Rain = 0
KMC4 121720Z 33012KT 10/01 A3028 RMK A01 T00980008  RH  053%=      5-min Rain = 0
KMC4 121721Z 35013KT 10/01 A3028 RMK A01 T00980009  RH  054%=      5-min Rain = 0
KMC4 121722Z 33014KT 10/01 A3028 RMK A01 T00990009  RH  054%=      5-min Rain = 0
KMC4 121723Z 34010KT 10/01 A3028 RMK A01 T00990011  RH  054%=      5-min Rain = 0
KMC4 121724Z 34011KT 10/01 A3028 RMK A01 T00990010  RH  054%=      5-min Rain = 0
KMC4 121725Z 35010KT 10/01 A3028 RMK A01 T00990008  RH  053%=      5-min Rain = 0
KMC4 121726Z 35011KT 10/01 A3028 RMK A01 T00990008  RH  053%=      5-min Rain = 0
KMC4 121727Z 34010KT 10/01 A3028 RMK A01 T00980007  RH  053%=      5-min Rain = 0
KMC4 121728Z 33013KT 10/01 A3028 RMK A01 T00980009  RH  054%=      5-min Rain = 0
KMC4 121729Z 33013KT 10/01 A3028 RMK A01 T00990011  RH  054%=      5-min Rain = 0
KMC4 121730Z 33012KT 10/01 A3028 RMK A01 T01010013  RH  054%=      5-min Rain = 0
KMC4 121731Z 33012KT 10/01 A3028 RMK A01 T01020013  RH  054%=      5-min Rain = 0
KMC4 121732Z 34014KT 10/01 A3028 RMK A01 T01020013  RH  054%=      5-min Rain = 0
KMC4 121733Z 35010KT 10/01 A3028 RMK A01 T01020013  RH  054%=      5-min Rain = 0
KMC4 121734Z 35010G15KT 10/01 A3028 RMK A01 T01020012  RH  053%=      5-min Rain = 0
KMC4 121735Z 34015KT 10/01 A3027 RMK A01 T01020011  RH  053%=      5-min Rain = 0
KMC4 121736Z 34016KT 10/01 A3027 RMK A01 T01020009  RH  052%=      5-min Rain = 0
KMC4 121737Z 34016KT 10/01 A3027 RMK A01 T01010008  RH  053%=      5-min Rain = 0
KMC4 121738Z 35013KT 10/01 A3027 RMK A01 T01010009  RH  053%=      5-min Rain = 0
KMC4 121739Z 34016KT 10/01 A3027 RMK A01 T01010009  RH  053%=      5-min Rain = 0
KMC4 121740Z 33014KT 10/01 A3027 RMK A01 T01010011  RH  054%=      5-min Rain = 0
KMC4 121741Z 34012KT 10/01 A3027 RMK A01 T01010011  RH  053%=      5-min Rain = 0
KMC4 121742Z 33012KT 10/01 A3027 RMK A01 T01020013  RH  054%=      5-min Rain = 0
KMC4 121743Z 34012G18KT 10/01 A3027 RMK A01 T01040014  RH  054%=      5-min Rain = 0
KMC4 121744Z 34014KT 11/01 A3027 RMK A01 T01050012  RH  053%=      5-min Rain = 0
KMC4 121745Z 34014KT 10/01 A3027 RMK A01 T01040011  RH  052%=      5-min Rain = 0
KMC4 121746Z 33016KT 10/01 A3027 RMK A01 T01030012  RH  053%=      5-min Rain = 0
KMC4 121747Z 35011KT 10/01 A3027 RMK A01 T01030013  RH  053%=      5-min Rain = 0
KMC4 121748Z 35009G14KT 10/01 A3027 RMK A01 T01040011  RH  053%=      5-min Rain = 0
KMC4 121749Z 34013G18KT 11/01 A3027 RMK A01 T01050012  RH  053%=      5-min Rain = 0
KMC4 121750Z 33013KT 11/01 A3027 RMK A01 T01060012  RH  052%=      5-min Rain = 0
KMC4 121751Z 33016KT 11/01 A3026 RMK A01 T01060012  RH  052%=      5-min Rain = 0
KMC4 121752Z 33014KT 11/01 A3027 RMK A01 T01050012  RH  053%=      5-min Rain = 0
KMC4 121753Z 33012KT 11/01 A3026 RMK A01 T01050013  RH  053%=      5-min Rain = 0
KMC4 121754Z 33013KT 11/02 A3026 RMK A01 T01060015  RH  053%=      5-min Rain = 0
KMC4 121755Z 34014KT 11/01 A3026 RMK A01 T01070012  RH  052%=      5-min Rain = 0
KMC4 121756Z 35012KT 11/01 A3026 RMK A01 T01050009  RH  052%=      5-min Rain = 0
KMC4 121757Z 35011G17KT 11/01 A3026 RMK A01 T01050011  RH  052%=      5-min Rain = 0
KMC4 121758Z 35014KT 11/01 A3026 RMK A01 T01050010  RH  052%=      5-min Rain = 0
KMC4 121759Z 35012G17KT 11/01 A3026 RMK A01 T01050009  RH  052%=      5-min Rain = 0
KMC4 121800Z 34011KT 10/01 A3026 RMK A01 T01040010  RH  052%=      5-min Rain = 0
KMC4 121801Z 33013KT 11/01 A3026 RMK A01 T01050013  RH  053%=      5-min Rain = 0
KMC4 121802Z 33011KT 11/01 A3026 RMK A01 T01050012  RH  053%=      5-min Rain = 0
KMC4 121803Z 34012KT 11/01 A3026 RMK A01 T01050012  RH  052%=      5-min Rain = 0
KMC4 121804Z 35011KT 11/01 A3026 RMK A01 T01060013  RH  053%=      5-min Rain = 0
KMC4 121805Z 33010G15KT 11/01 A3026 RMK A01 T01070012  RH  052%=      5-min Rain = 0
KMC4 121806Z 34014G19KT 11/01 A3026 RMK A01 T01080013  RH  052%=      5-min Rain = 0
KMC4 121807Z 34015KT 11/01 A3026 RMK A01 T01080014  RH  052%=      5-min Rain = 0
KMC4 121808Z 34014KT 11/01 A3026 RMK A01 T01080012  RH  051%=      5-min Rain = 0
KMC4 121809Z 34012KT 11/01 A3026 RMK A01 T01060011  RH  052%=      5-min Rain = 0
KMC4 121810Z 33012KT 11/01 A3026 RMK A01 T01050012  RH  052%=      5-min Rain = 0
KMC4 121811Z 33010KT 11/01 A3026 RMK A01 T01060014  RH  053%=      5-min Rain = 0
KMC4 121812Z 33011KT 11/01 A3026 RMK A01 T01060012  RH  052%=      5-min Rain = 0
KMC4 121813Z 33010KT 11/02 A3026 RMK A01 T01060015  RH  053%=      5-min Rain = 0
KMC4 121814Z 34011KT 11/02 A3026 RMK A01 T01080016  RH  053%=      5-min Rain = 0
KMC4 121815Z 35009KT 11/02 A3026 RMK A01 T01110017  RH  052%=      5-min Rain = 0
KMC4 121816Z 34010KT 11/02 A3025 RMK A01 T01120016  RH  052%=      5-min Rain = 0
KMC4 121817Z 35012KT 11/01 A3025 RMK A01 T01120012  RH  050%=      5-min Rain = 0
KMC4 121818Z 33008G13KT 11/01 A3025 RMK A01 T01100012  RH  051%=      5-min Rain = 0
KMC4 121819Z 32012KT 11/01 A3025 RMK A01 T01090014  RH  052%=      5-min Rain = 0
KMC4 121820Z 33008KT 11/02 A3025 RMK A01 T01100016  RH  052%=      5-min Rain = 0
KMC4 121821Z 31009KT 11/02 A3025 RMK A01 T01120019  RH  053%=      5-min Rain = 0
KMC4 121822Z 32010KT 11/02 A3025 RMK A01 T01120015  RH  051%=      5-min Rain = 0
KMC4 121823Z 31009KT 11/01 A3025 RMK A01 T01110014  RH  051%=      5-min Rain = 0
KMC4 121824Z 34014KT 11/02 A3025 RMK A01 T01130017  RH  052%=      5-min Rain = 0
KMC4 121825Z 35013KT 11/01 A3025 RMK A01 T01130013  RH  050%=      5-min Rain = 0
KMC4 121826Z 36014KT 11/01 A3025 RMK A01 T01110012  RH  050%=      5-min Rain = 0
KMC4 121827Z 35010KT 11/01 A3025 RMK A01 T01100012  RH  051%=      5-min Rain = 0
KMC4 121828Z 35008KT 11/01 A3025 RMK A01 T01090011  RH  051%=      5-min Rain = 0
KMC4 121829Z 36009KT 11/01 A3025 RMK A01 T01080010  RH  051%=      5-min Rain = 0
KMC4 121830Z 00011KT 11/01 A3024 RMK A01 T01080011  RH  051%=      5-min Rain = 0
KMC4 121831Z 33015KT 11/01 A3024 RMK A01 T01090013  RH  051%=      5-min Rain = 0
KMC4 121832Z 32010KT 11/01 A3024 RMK A01 T01100014  RH  051%=      5-min Rain = 0
KMC4 121833Z 32010KT 11/02 A3024 RMK A01 T01120019  RH  053%=      5-min Rain = 0
KMC4 121834Z 32012KT 11/02 A3024 RMK A01 T01140019  RH  052%=      5-min Rain = 0
KMC4 121835Z 34011G17KT 12/02 A3024 RMK A01 T01160020  RH  052%=      5-min Rain = 0
KMC4 121836Z 34011KT 12/01 A3024 RMK A01 T01150014  RH  050%=      5-min Rain = 0
KMC4 121837Z 31010KT 11/02 A3024 RMK A01 T01130016  RH  051%=      5-min Rain = 0
KMC4 121838Z 32008KT 11/02 A3024 RMK A01 T01130016  RH  051%=      5-min Rain = 0
KMC4 121839Z 33008KT 11/02 A3024 RMK A01 T01130017  RH  051%=      5-min Rain = 0
KMC4 121840Z 32013KT 11/02 A3024 RMK A01 T01140015  RH  051%=      5-min Rain = 0
KMC4 121841Z 31012KT 11/02 A3024 RMK A01 T01140015  RH  051%=      5-min Rain = 0
KMC4 121842Z 31014KT 11/02 A3024 RMK A01 T01140015  RH  051%=      5-min Rain = 0
KMC4 121843Z 31013KT 11/01 A3024 RMK A01 T01140014  RH  050%=      5-min Rain = 0
KMC4 121844Z 31010KT 11/02 A3024 RMK A01 T01130015  RH  051%=      5-min Rain = 0
KMC4 121845Z 32010KT 11/02 A3024 RMK A01 T01140015  RH  051%=      5-min Rain = 0
KMC4 121846Z 31011KT 11/02 A3024 RMK A01 T01140016  RH  051%=      5-min Rain = 0
KMC4 121847Z 32014KT 12/02 A3023 RMK A01 T01150016  RH  051%=      5-min Rain = 0
KMC4 121848Z 32012KT 12/02 A3023 RMK A01 T01150016  RH  050%=      5-min Rain = 0
KMC4 121849Z 32012KT 12/02 A3023 RMK A01 T01160017  RH  051%=      5-min Rain = 0
KMC4 121850Z 33013KT 12/02 A3023 RMK A01 T01170017  RH  050%=      5-min Rain = 0
KMC4 121851Z 33010KT 12/01 A3023 RMK A01 T01160014  RH  049%=      5-min Rain = 0
KMC4 121852Z 33008KT 12/01 A3023 RMK A01 T01150014  RH  050%=      5-min Rain = 0
KMC4 121853Z 33009KT 12/02 A3023 RMK A01 T01150015  RH  050%=      5-min Rain = 0
KMC4 121854Z 33013KT 12/02 A3023 RMK A01 T01160015  RH  050%=      5-min Rain = 0
KMC4 121855Z 33011KT 12/02 A3023 RMK A01 T01170015  RH  050%=      5-min Rain = 0
KMC4 121856Z 35009KT 12/02 A3023 RMK A01 T01170016  RH  050%=      5-min Rain = 0
KMC4 121857Z 34006KT 12/02 A3023 RMK A01 T01170015  RH  049%=      5-min Rain = 0
KMC4 121858Z 32009G14KT 12/02 A3023 RMK A01 T01160015  RH  050%=      5-min Rain = 0
KMC4 121859Z 32010KT 12/02 A3023 RMK A01 T01170017  RH  050%=      5-min Rain = 0
KMC4 121900Z 32010KT 12/02 A3023 RMK A01 T01190018  RH  050%=      5-min Rain = 0
KMC4 121901Z 35007KT 12/02 A3023 RMK A01 T01200016  RH  049%=      5-min Rain = 0
KMC4 121902Z 35009G14KT 12/01 A3023 RMK A01 T01190014  RH  048%=      5-min Rain = 0
KMC4 121903Z 34011KT 12/01 A3023 RMK A01 T01180013  RH  048%=      5-min Rain = 0
KMC4 121904Z 34011KT 12/01 A3023 RMK A01 T01170014  RH  049%=      5-min Rain = 0
KMC4 121905Z 33010KT 12/02 A3023 RMK A01 T01170015  RH  049%=      5-min Rain = 0
KMC4 121906Z 32010KT 12/02 A3023 RMK A01 T01180017  RH  050%=      5-min Rain = 0
KMC4 121907Z 31007KT 12/02 A3023 RMK A01 T01190016  RH  049%=      5-min Rain = 0
KMC4 121908Z 34009KT 12/02 A3023 RMK A01 T01190018  RH  050%=      5-min Rain = 0
KMC4 121909Z 34011G16KT 12/01 A3022 RMK A01 T01190014  RH  048%=      5-min Rain = 0
KMC4 121910Z 34013KT 12/01 A3022 RMK A01 T01190014  RH  049%=      5-min Rain = 0
KMC4 121911Z 33012KT 12/01 A3022 RMK A01 T01190014  RH  049%=      5-min Rain = 0
KMC4 121912Z 33010KT 12/02 A3022 RMK A01 T01180016  RH  049%=      5-min Rain = 0
KMC4 121913Z 33010KT 12/01 A3022 RMK A01 T01180014  RH  049%=      5-min Rain = 0
KMC4 121914Z 33008KT 12/02 A3022 RMK A01 T01180017  RH  050%=      5-min Rain = 0
KMC4 121915Z 34009KT 12/02 A3022 RMK A01 T01190017  RH  050%=      5-min Rain = 0
KMC4 121916Z 34010KT 12/01 A3022 RMK A01 T01190013  RH  048%=      5-min Rain = 0
KMC4 121917Z 34010KT 12/01 A3022 RMK A01 T01180014  RH  049%=      5-min Rain = 0
KMC4 121918Z 33008KT 12/02 A3022 RMK A01 T01180015  RH  049%=      5-min Rain = 0
KMC4 121919Z 33013KT 12/02 A3022 RMK A01 T01190017  RH  050%=      5-min Rain = 0
KMC4 121920Z 34011KT 12/02 A3022 RMK A01 T01200015  RH  049%=      5-min Rain = 0
KMC4 121921Z 33009KT 12/02 A3022 RMK A01 T01200016  RH  049%=      5-min Rain = 0
KMC4 121922Z 33008KT 12/01 A3022 RMK A01 T01200014  RH  048%=      5-min Rain = 0
KMC4 121923Z 31009KT 12/01 A3022 RMK A01 T01190014  RH  049%=      5-min Rain = 0
KMC4 121924Z 31012KT 12/02 A3022 RMK A01 T01200015  RH  049%=      5-min Rain = 0
KMC4 121925Z 32013KT 12/02 A3022 RMK A01 T01200015  RH  048%=      5-min Rain = 0
KMC4 121926Z 32012KT 12/02 A3022 RMK A01 T01210015  RH  048%=      5-min Rain = 0
KMC4 121927Z 32008KT 12/01 A3022 RMK A01 T01200013  RH  048%=      5-min Rain = 0
KMC4 121928Z 31007KT 12/02 A3022 RMK A01 T01200017  RH  049%=      5-min Rain = 0
KMC4 121929Z 31012KT 12/02 A3022 RMK A01 T01220017  RH  049%=      5-min Rain = 0
KMC4 121930Z 31012KT 12/02 A3022 RMK A01 T01230016  RH  048%=      5-min Rain = 0
KMC4 121931Z 32011KT 12/02 A3022 RMK A01 T01230016  RH  048%=      5-min Rain = 0
KMC4 121932Z 32010KT 12/01 A3022 RMK A01 T01220014  RH  048%=      5-min Rain = 0
KMC4 121933Z 32008KT 12/01 A3022 RMK A01 T01210013  RH  047%=      5-min Rain = 0
KMC4 121934Z 34009KT 12/01 A3021 RMK A01 T01210014  RH  048%=      5-min Rain = 0
KMC4 121935Z 34012KT 12/02 A3021 RMK A01 T01210015  RH  048%=      5-min Rain = 0
KMC4 121936Z 34009KT 12/01 A3021 RMK A01 T01210014  RH  048%=      5-min Rain = 0
KMC4 121937Z 36007KT 12/01 A3021 RMK A01 T01210013  RH  048%=      5-min Rain = 0
KMC4 121938Z 01009KT 12/01 A3021 RMK A01 T01210013  RH  047%=      5-min Rain = 0
KMC4 121939Z 01007KT 12/01 A3021 RMK A01 T01210012  RH  047%=      5-min Rain = 0
KMC4 121940Z 35006KT 12/01 A3021 RMK A01 T01210011  RH  047%=      5-min Rain = 0
KMC4 121941Z 33005KT 12/01 A3021 RMK A01 T01200012  RH  048%=      5-min Rain = 0
KMC4 121942Z 33006G12KT 12/02 A3021 RMK A01 T01210019  RH  050%=      5-min Rain = 0
KMC4 121943Z 32013KT 13/02 A3021 RMK A01 T01250018  RH  048%=      5-min Rain = 0
KMC4 121944Z 33012KT 13/02 A3021 RMK A01 T01260016  RH  047%=      5-min Rain = 0
KMC4 121945Z 32009KT 13/02 A3021 RMK A01 T01250016  RH  047%=      5-min Rain = 0
KMC4 121946Z 33011KT 13/02 A3021 RMK A01 T01250015  RH  047%=      5-min Rain = 0
KMC4 121947Z 33011KT 12/01 A3021 RMK A01 T01240012  RH  046%=      5-min Rain = 0
KMC4 121948Z 33010KT 12/02 A3021 RMK A01 T01240015  RH  047%=      5-min Rain = 0
KMC4 121949Z 34012KT 12/02 A3021 RMK A01 T01240015  RH  047%=      5-min Rain = 0
KMC4 121950Z 33012KT 13/02 A3021 RMK A01 T01250015  RH  047%=      5-min Rain = 0
KMC4 121951Z 34011KT 13/01 A3021 RMK A01 T01250013  RH  046%=      5-min Rain = 0
KMC4 121952Z 34009KT 12/01 A3021 RMK A01 T01240012  RH  046%=      5-min Rain = 0
KMC4 121953Z 34012KT 12/01 A3021 RMK A01 T01230012  RH  046%=      5-min Rain = 0
KMC4 121954Z 35008KT 12/01 A3021 RMK A01 T01230010  RH  046%=      5-min Rain = 0
KMC4 121955Z 33009KT 12/01 A3021 RMK A01 T01220014  RH  047%=      5-min Rain = 0
KMC4 121956Z 33014KT 12/02 A3021 RMK A01 T01240016  RH  048%=      5-min Rain = 0
KMC4 121957Z 34011KT 13/01 A3021 RMK A01 T01250014  RH  047%=      5-min Rain = 0
KMC4 121958Z 33010KT 13/01 A3021 RMK A01 T01250014  RH  046%=      5-min Rain = 0
KMC4 121959Z 33010KT 13/01 A3021 RMK A01 T01250014  RH  047%=      5-min Rain = 0
KMC4 122000Z 34011KT 13/01 A3021 RMK A01 T01250013  RH  046%=      5-min Rain = 0
KMC4 122001Z 35011KT 12/01 A3021 RMK A01 T01240011  RH  046%=      5-min Rain = 0
KMC4 122002Z 34010KT 12/01 A3021 RMK A01 T01240011  RH  046%=      5-min Rain = 0
KMC4 122003Z 34009KT 13/01 A3021 RMK A01 T01250014  RH  047%=      5-min Rain = 0
KMC4 122004Z 32012KT 13/01 A3021 RMK A01 T01260012  RH  046%=      5-min Rain = 0
KMC4 122005Z 33010KT 13/01 A3021 RMK A01 T01260014  RH  046%=      5-min Rain = 0
KMC4 122006Z 33009KT 13/01 A3021 RMK A01 T01260014  RH  046%=      5-min Rain = 0
KMC4 122007Z 33009KT 13/02 A3021 RMK A01 T01260015  RH  047%=      5-min Rain = 0
KMC4 122008Z 31007KT 13/02 A3021 RMK A01 T01260016  RH  047%=      5-min Rain = 0
KMC4 122009Z 31009KT 13/02 A3021 RMK A01 T01270015  RH  047%=      5-min Rain = 0
KMC4 122010Z 33009KT 13/02 A3021 RMK A01 T01280016  RH  046%=      5-min Rain = 0
KMC4 122011Z 33008KT 13/02 A3021 RMK A01 T01280017  RH  047%=      5-min Rain = 0
KMC4 122012Z 33010KT 13/02 A3021 RMK A01 T01280015  RH  046%=      5-min Rain = 0
KMC4 122013Z 33009KT 13/01 A3021 RMK A01 T01280014  RH  046%=      5-min Rain = 0
KMC4 122014Z 32010KT 13/01 A3021 RMK A01 T01270014  RH  046%=      5-min Rain = 0
KMC4 122015Z 32009KT 13/02 A3021 RMK A01 T01270017  RH  047%=      5-min Rain = 0
KMC4 122016Z 33009KT 13/02 A3021 RMK A01 T01300020  RH  047%=      5-min Rain = 0
KMC4 122017Z 34009KT 13/01 A3021 RMK A01 T01310014  RH  045%=      5-min Rain = 0
KMC4 122018Z 34008KT 13/01 A3021 RMK A01 T01280011  RH  045%=      5-min Rain = 0
KMC4 122019Z 33007KT 13/01 A3021 RMK A01 T01260013  RH  046%=      5-min Rain = 0
KMC4 122020Z 33008KT 13/02 A3021 RMK A01 T01270017  RH  047%=      5-min Rain = 0
KMC4 122021Z 33012KT 13/02 A3021 RMK A01 T01290018  RH  047%=      5-min Rain = 0
KMC4 122022Z 35012KT 13/01 A302 RMK A01 T01300014  RH  045%=      5-min Rain = 0
KMC4 122023Z 00013KT 13/01 A302 RMK A01 T01280011  RH  045%=      5-min Rain = 0
KMC4 122024Z 35009KT 13/01 A302 RMK A01 T01250009  RH  045%=      5-min Rain = 0
KMC4 122025Z 34007KT 12/01 A302 RMK A01 T01240010  RH  046%=      5-min Rain = 0
KMC4 122026Z 32012KT 13/01 A302 RMK A01 T01260014  RH  046%=      5-min Rain = 0
KMC4 122027Z 32014KT 13/02 A302 RMK A01 T01290015  RH  046%=      5-min Rain = 0
KMC4 122028Z 33011KT 13/01 A302 RMK A01 T01300013  RH  045%=      5-min Rain = 0
KMC4 122029Z 33012KT 13/02 A3021 RMK A01 T01310015  RH  045%=      5-min Rain = 0
KMC4 122030Z 33009KT 13/02 A3021 RMK A01 T01320015  RH  045%=      5-min Rain = 0
KMC4 122031Z 33009KT 13/01 A3021 RMK A01 T01320014  RH  045%=      5-min Rain = 0
KMC4 122032Z 32010KT 13/01 A3021 RMK A01 T01300012  RH  045%=      5-min Rain = 0
KMC4 122033Z 32010KT 13/02 A3021 RMK A01 T01300015  RH  045%=      5-min Rain = 0
KMC4 122034Z 32009KT 13/02 A3021 RMK A01 T01310015  RH  045%=      5-min Rain = 0
KMC4 122035Z 34006KT 13/02 A3021 RMK A01 T01320019  RH  046%=      5-min Rain = 0
KMC4 122036Z 34007KT 13/02 A3021 RMK A01 T01330016  RH  045%=      5-min Rain = 0
KMC4 122037Z 34009KT 13/02 A3021 RMK A01 T01330016  RH  045%=      5-min Rain = 0
KMC4 122038Z 33008KT 13/02 A3021 RMK A01 T01330016  RH  045%=      5-min Rain = 0
KMC4 122039Z 32008KT 13/02 A3021 RMK A01 T01320015  RH  045%=      5-min Rain = 0
KMC4 122040Z 33007KT 13/02 A3021 RMK A01 T01320017  RH  046%=      5-min Rain = 0
KMC4 122041Z 35008G13KT 13/01 A302 RMK A01 T01330014  RH  045%=      5-min Rain = 0
KMC4 122042Z 00012KT 13/01 A302 RMK A01 T01320013  RH  044%=      5-min Rain = 0
KMC4 122043Z 35012KT 13/01 A302 RMK A01 T01320010  RH  044%=      5-min Rain = 0
KMC4 122044Z 36013KT 13/01 A302 RMK A01 T01300008  RH  043%=      5-min Rain = 0
KMC4 122045Z 35011KT 13/01 A302 RMK A01 T01290009  RH  044%=      5-min Rain = 0
KMC4 122046Z 34011KT 13/01 A302 RMK A01 T01290010  RH  044%=      5-min Rain = 0
KMC4 122047Z 34010KT 13/01 A302 RMK A01 T01290010  RH  044%=      5-min Rain = 0
KMC4 122048Z 33010KT 13/01 A302 RMK A01 T01300011  RH  044%=      5-min Rain = 0
KMC4 122049Z 33012KT 13/01 A302 RMK A01 T01300010  RH  044%=      5-min Rain = 0
KMC4 122050Z 31011KT 13/01 A3021 RMK A01 T01300013  RH  045%=      5-min Rain = 0
KMC4 122051Z 31012KT 13/02 A3021 RMK A01 T01320015  RH  045%=      5-min Rain = 0
KMC4 122052Z 32012KT 13/01 A3021 RMK A01 T01330014  RH  044%=      5-min Rain = 0
KMC4 122053Z 32011KT 13/01 A3021 RMK A01 T01330014  RH  044%=      5-min Rain = 0
KMC4 122054Z 32011KT 13/01 A3021 RMK A01 T01330014  RH  044%=      5-min Rain = 0
KMC4 122055Z 33009KT 13/01 A3021 RMK A01 T01330013  RH  044%=      5-min Rain = 0
KMC4 122056Z 33007KT 13/01 A3021 RMK A01 T01330012  RH  044%=      5-min Rain = 0
KMC4 122057Z 34007KT 13/01 A3021 RMK A01 T01310009  RH  043%=      5-min Rain = 0
KMC4 122058Z 33010KT 13/01 A3021 RMK A01 T01300009  RH  044%=      5-min Rain = 0
KMC4 122059Z 33011KT 13/01 A3021 RMK A01 T01300012  RH  044%=      5-min Rain = 0
KMC4 122100Z 32011KT 13/01 A3021 RMK A01 T01320014  RH  044%=      5-min Rain = 0
KMC4 122101Z 32010KT 13/01 A3021 RMK A01 T01330014  RH  044%=      5-min Rain = 0
KMC4 122102Z 31007KT 13/01 A3021 RMK A01 T01330012  RH  044%=      5-min Rain = 0
KMC4 122103Z 31006KT 13/01 A3021 RMK A01 T01330013  RH  044%=      5-min Rain = 0
KMC4 122104Z 32005KT 13/01 A3021 RMK A01 T01340013  RH  044%=      5-min Rain = 0
KMC4 122105Z 32005KT 13/01 A3021 RMK A01 T01340013  RH  044%=      5-min Rain = 0
KMC4 122106Z 33010KT 13/01 A302 RMK A01 T01340013  RH  044%=      5-min Rain = 0
KMC4 122107Z 33010KT 14/01 A302 RMK A01 T01360014  RH  044%=      5-min Rain = 0
KMC4 122108Z 33010KT 14/01 A302 RMK A01 T01360013  RH  043%=      5-min Rain = 0
KMC4 122109Z 34008KT 14/01 A3021 RMK A01 T01350014  RH  044%=      5-min Rain = 0
KMC4 122110Z 34008KT 14/01 A3021 RMK A01 T01350010  RH  043%=      5-min Rain = 0
KMC4 122111Z 34006KT 13/01 A3021 RMK A01 T01320008  RH  043%=      5-min Rain = 0
KMC4 122112Z 34006KT 13/01 A3021 RMK A01 T01320011  RH  044%=      5-min Rain = 0
KMC4 122113Z 33007KT 13/01 A302 RMK A01 T01320010  RH  043%=      5-min Rain = 0
KMC4 122114Z 32010KT 13/01 A302 RMK A01 T01330012  RH  044%=      5-min Rain = 0
KMC4 122115Z 32010KT 14/01 A302 RMK A01 T01350012  RH  043%=      5-min Rain = 0
KMC4 122116Z 34006KT 14/01 A3021 RMK A01 T01350010  RH  042%=      5-min Rain = 0
KMC4 122117Z 33008KT 14/01 A3021 RMK A01 T01360011  RH  043%=      5-min Rain = 0
KMC4 122118Z 33012KT 14/01 A3021 RMK A01 T01350010  RH  043%=      5-min Rain = 0
KMC4 122119Z 33009KT 14/01 A3021 RMK A01 T01350009  RH  042%=      5-min Rain = 0
KMC4 122120Z 33008KT 14/01 A3021 RMK A01 T01350011  RH  043%=      5-min Rain = 0
KMC4 122121Z 33008KT 14/01 A3021 RMK A01 T01350011  RH  043%=      5-min Rain = 0
KMC4 122122Z 31007KT 13/01 A3021 RMK A01 T01340008  RH  042%=      5-min Rain = 0
KMC4 122123Z 32010KT 13/01 A302 RMK A01 T01340009  RH  043%=      5-min Rain = 0
KMC4 122124Z 32011KT 13/01 A3021 RMK A01 T01340011  RH  043%=      5-min Rain = 0
KMC4 122125Z 33010KT 14/01 A3021 RMK A01 T01350012  RH  043%=      5-min Rain = 0
KMC4 122126Z 33009KT 14/01 A3021 RMK A01 T01360011  RH  043%=      5-min Rain = 0
KMC4 122127Z 32009KT 14/01 A3021 RMK A01 T01350012  RH  043%=      5-min Rain = 0
KMC4 122128Z 33010KT 14/01 A3021 RMK A01 T01350010  RH  042%=      5-min Rain = 0
KMC4 122129Z 34008KT 14/01 A3021 RMK A01 T01350009  RH  042%=      5-min Rain = 0
KMC4 122130Z 34008KT 13/01 A3021 RMK A01 T01340009  RH  042%=      5-min Rain = 0
KMC4 122131Z 34008KT 13/01 A3021 RMK A01 T01340010  RH  043%=      5-min Rain = 0
KMC4 122132Z 32009KT 14/01 A3021 RMK A01 T01350012  RH  043%=      5-min Rain = 0
KMC4 122133Z 33009KT 14/01 A3021 RMK A01 T01360012  RH  043%=      5-min Rain = 0
KMC4 122134Z 34007KT 14/01 A3021 RMK A01 T01360010  RH  042%=      5-min Rain = 0
KMC4 122135Z 33005KT 14/01 A3021 RMK A01 T01350009  RH  042%=      5-min Rain = 0
KMC4 122136Z 35006KT 13/01 A3021 RMK A01 T01340011  RH  043%=      5-min Rain = 0
KMC4 122137Z 35009KT 14/01 A3021 RMK A01 T01360011  RH  043%=      5-min Rain = 0
KMC4 122138Z 35010KT 14/01 A3021 RMK A01 T01360009  RH  042%=      5-min Rain = 0
KMC4 122139Z 34010KT 14/01 A3021 RMK A01 T01350009  RH  042%=      5-min Rain = 0
KMC4 122140Z 34008KT 13/01 A3021 RMK A01 T01340009  RH  042%=      5-min Rain = 0
KMC4 122141Z 34006KT 13/01 A3021 RMK A01 T01340010  RH  043%=      5-min Rain = 0
KMC4 122142Z 34008KT 13/01 A3021 RMK A01 T01340010  RH  043%=      5-min Rain = 0
KMC4 122143Z 34007KT 13/01 A3021 RMK A01 T01340010  RH  043%=      5-min Rain = 0
KMC4 122144Z 33006G11KT 13/01 A3021 RMK A01 T01330007  RH  042%=      5-min Rain = 0
KMC4 122145Z 34010KT 13/01 A3021 RMK A01 T01340008  RH  042%=      5-min Rain = 0
KMC4 122146Z 35008KT 13/01 A302 RMK A01 T01340007  RH  042%=      5-min Rain = 0
KMC4 122147Z 31009KT 13/01 A302 RMK A01 T01340010  RH  043%=      5-min Rain = 0
KMC4 122148Z 32012KT 14/01 A302 RMK A01 T01350010  RH  043%=      5-min Rain = 0
KMC4 122149Z 34011KT 14/01 A302 RMK A01 T01350010  RH  042%=      5-min Rain = 0
KMC4 122150Z 35009KT 14/01 A302 RMK A01 T01350010  RH  042%=      5-min Rain = 0
KMC4 122151Z 33010KT 14/01 A302 RMK A01 T01350010  RH  042%=      5-min Rain = 0
KMC4 122152Z 32009KT 14/01 A302 RMK A01 T01350010  RH  042%=      5-min Rain = 0
KMC4 122153Z 33010KT 14/01 A302 RMK A01 T01360011  RH  042%=      5-min Rain = 0
KMC4 122154Z 32008KT 14/01 A302 RMK A01 T01360012  RH  043%=      5-min Rain = 0
KMC4 122155Z 32009KT 14/01 A3021 RMK A01 T01370013  RH  043%=      5-min Rain = 0
KMC4 122156Z 32009KT 14/01 A3021 RMK A01 T01370011  RH  042%=      5-min Rain = 0
KMC4 122157Z 32007KT 14/01 A3021 RMK A01 T01370010  RH  042%=      5-min Rain = 0
KMC4 122158Z 32005KT 14/01 A3021 RMK A01 T01360008  RH  042%=      5-min Rain = 0
KMC4 122159Z 33004KT 14/01 A3021 RMK A01 T01350009  RH  042%=      5-min Rain = 0
KMC4 122200Z 30004KT 14/01 A3021 RMK A01 T01350011  RH  043%=      5-min Rain = 0
KMC4 122201Z 28006KT 14/01 A3021 RMK A01 T01350011  RH  043%=      5-min Rain = 0
KMC4 122202Z 27006KT 14/01 A3021 RMK A01 T01360009  RH  042%=      5-min Rain = 0
KMC4 122203Z 29005KT 14/01 A3021 RMK A01 T01360013  RH  043%=      5-min Rain = 0
KMC4 122204Z 30005KT 14/01 A3021 RMK A01 T01370014  RH  043%=      5-min Rain = 0
KMC4 122205Z 33004KT 14/01 A3021 RMK A01 T01380014  RH  043%=      5-min Rain = 0
KMC4 122206Z 35005KT 14/01 A3021 RMK A01 T01390013  RH  043%=      5-min Rain = 0
KMC4 122207Z 01006KT 14/01 A3021 RMK A01 T01380010  RH  042%=      5-min Rain = 0
KMC4 122208Z 36006KT 14/01 A3021 RMK A01 T01370010  RH  042%=      5-min Rain = 0
KMC4 122209Z 34005KT 14/01 A3021 RMK A01 T01370011  RH  042%=      5-min Rain = 0
KMC4 122210Z 33008KT 14/01 A3021 RMK A01 T01370013  RH  043%=      5-min Rain = 0
KMC4 122211Z 33007KT 14/01 A3021 RMK A01 T01370009  RH  042%=      5-min Rain = 0
KMC4 122212Z 35009KT 14/01 A3021 RMK A01 T01370012  RH  043%=      5-min Rain = 0
KMC4 122213Z 35009KT 14/01 A3021 RMK A01 T01370011  RH  042%=      5-min Rain = 0
KMC4 122214Z 35009KT 14/01 A3021 RMK A01 T01370009  RH  042%=      5-min Rain = 0
KMC4 122215Z 36009KT 14/01 A3021 RMK A01 T01360010  RH  042%=      5-min Rain = 0
KMC4 122216Z 01008KT 14/01 A3021 RMK A01 T01360009  RH  042%=      5-min Rain = 0
KMC4 122217Z 36005KT 14/01 A3021 RMK A01 T01350008  RH  042%=      5-min Rain = 0
KMC4 122218Z 01004KT 13/01 A3021 RMK A01 T01340006  RH  042%=      5-min Rain = 0
KMC4 122219Z 35003KT 13/01 A3021 RMK A01 T01340008  RH  042%=      5-min Rain = 0
KMC4 122220Z 34006KT 14/01 A3021 RMK A01 T01350010  RH  042%=      5-min Rain = 0
KMC4 122221Z 35006KT 14/01 A3021 RMK A01 T01360011  RH  042%=      5-min Rain = 0
KMC4 122222Z 36005KT 14/01 A3021 RMK A01 T01360009  RH  042%=      5-min Rain = 0
KMC4 122223Z 01003KT 14/01 A3021 RMK A01 T01360009  RH  042%=      5-min Rain = 0
KMC4 122224Z 04002KT 14/01 A3021 RMK A01 T01360008  RH  042%=      5-min Rain = 0
KMC4 122225Z 01004KT 14/01 A3021 RMK A01 T01350008  RH  042%=      5-min Rain = 0
KMC4 122226Z 00004KT 14/01 A3021 RMK A01 T01350008  RH  042%=      5-min Rain = 0
KMC4 122227Z 01005KT 14/01 A3021 RMK A01 T01360010  RH  042%=      5-min Rain = 0
KMC4 122228Z 35007KT 14/01 A3021 RMK A01 T01360010  RH  042%=      5-min Rain = 0
KMC4 122229Z 35009KT 14/01 A3021 RMK A01 T01360009  RH  042%=      5-min Rain = 0
KMC4 122230Z 00008KT 14/01 A3021 RMK A01 T01360008  RH  042%=      5-min Rain = 0
KMC4 122231Z 34007KT 14/01 A3021 RMK A01 T01350008  RH  042%=      5-min Rain = 0
KMC4 122232Z 35007KT 14/01 A3021 RMK A01 T01350010  RH  043%=      5-min Rain = 0
KMC4 122233Z 36006KT 14/01 A3021 RMK A01 T01350009  RH  042%=      5-min Rain = 0
KMC4 122234Z 01006KT 14/01 A3021 RMK A01 T01350007  RH  042%=      5-min Rain = 0
KMC4 122235Z 01006KT 14/01 A3021 RMK A01 T01350010  RH  042%=      5-min Rain = 0
KMC4 122236Z 02006KT 14/01 A3021 RMK A01 T01350010  RH  042%=      5-min Rain = 0
KMC4 122237Z 00004KT 14/01 A3021 RMK A01 T01360010  RH  042%=      5-min Rain = 0
KMC4 122238Z 35004KT 14/01 A3021 RMK A01 T01360009  RH  042%=      5-min Rain = 0
KMC4 122239Z 01005KT 14/01 A3021 RMK A01 T01360011  RH  042%=      5-min Rain = 0
KMC4 122240Z 36006KT 14/01 A3021 RMK A01 T01360010  RH  042%=      5-min Rain = 0
KMC4 122241Z 34006KT 14/01 A3021 RMK A01 T01360008  RH  042%=      5-min Rain = 0
KMC4 122242Z 35003KT 14/01 A3021 RMK A01 T01350008  RH  042%=      5-min Rain = 0
KMC4 122243Z 36005KT 14/01 A3021 RMK A01 T01350011  RH  043%=      5-min Rain = 0
KMC4 122244Z 00007KT 14/01 A3021 RMK A01 T01350009  RH  042%=      5-min Rain = 0
KMC4 122245Z 35009KT 14/01 A3021 RMK A01 T01350008  RH  042%=      5-min Rain = 0
KMC4 122246Z 36007KT 14/01 A3021 RMK A01 T01350008  RH  042%=      5-min Rain = 0
KMC4 122247Z 01009KT 14/01 A3021 RMK A01 T01350008  RH  042%=      5-min Rain = 0
KMC4 122248Z 36009KT 14/01 A3021 RMK A01 T01360007  RH  041%=      5-min Rain = 0
KMC4 122249Z 36006KT 14/01 A3021 RMK A01 T01360008  RH  042%=      5-min Rain = 0
KMC4 122250Z 33006KT 14/01 A3021 RMK A01 T01350010  RH  042%=      5-min Rain = 0
KMC4 122251Z 33008KT 14/01 A3021 RMK A01 T01360013  RH  043%=      5-min Rain = 0
KMC4 122252Z 34005KT 14/01 A3021 RMK A01 T01360008  RH  042%=      5-min Rain = 0
KMC4 122253Z 34005KT 14/01 A3021 RMK A01 T01360008  RH  042%=      5-min Rain = 0
KMC4 122254Z 34005KT 14/01 A3021 RMK A01 T01360008  RH  042%=      5-min Rain = 0
KMC4 122255Z 33004KT 14/01 A3021 RMK A01 T01350009  RH  042%=      5-min Rain = 0
KMC4 122256Z 34005KT 14/01 A3021 RMK A01 T01350010  RH  042%=      5-min Rain = 0
KMC4 122257Z 35005KT 14/01 A3021 RMK A01 T01350010  RH  043%=      5-min Rain = 0
KMC4 122258Z 34005KT 14/01 A3022 RMK A01 T01360010  RH  042%=      5-min Rain = 0
KMC4 122259Z 01005KT 14/01 A3022 RMK A01 T01360011  RH  042%=      5-min Rain = 0
KMC4 122300Z 02005KT 14/01 A3022 RMK A01 T01350009  RH  042%=      5-min Rain = 0
KMC4 122301Z 01004KT 14/01 A3022 RMK A01 T01350008  RH  042%=      5-min Rain = 0
KMC4 122302Z 34003KT 13/01 A3022 RMK A01 T01340009  RH  042%=      5-min Rain = 0
KMC4 122303Z 33004KT 13/01 A3022 RMK A01 T01340008  RH  042%=      5-min Rain = 0
KMC4 122304Z 33005KT 13/01 A3022 RMK A01 T01340010  RH  043%=      5-min Rain = 0
KMC4 122305Z 33007KT 13/01 A3022 RMK A01 T01340011  RH  043%=      5-min Rain = 0
KMC4 122306Z 35009KT 13/01 A3022 RMK A01 T01340011  RH  043%=      5-min Rain = 0
KMC4 122307Z 35007KT 13/01 A3022 RMK A01 T01340012  RH  043%=      5-min Rain = 0
KMC4 122308Z 00008KT 13/01 A3022 RMK A01 T01330010  RH  043%=      5-min Rain = 0
KMC4 122309Z 00009KT 13/01 A3022 RMK A01 T01320008  RH  043%=      5-min Rain = 0
KMC4 122310Z 00008KT 13/01 A3022 RMK A01 T01310007  RH  043%=      5-min Rain = 0
KMC4 122311Z 36008KT 13/01 A3022 RMK A01 T01310007  RH  043%=      5-min Rain = 0
KMC4 122312Z 00006KT 13/01 A3022 RMK A01 T01310008  RH  043%=      5-min Rain = 0
KMC4 122313Z 01006KT 13/01 A3022 RMK A01 T01320009  RH  043%=      5-min Rain = 0
KMC4 122314Z 01006KT 13/01 A3022 RMK A01 T01320008  RH  043%=      5-min Rain = 0
KMC4 122315Z 01006KT 13/01 A3022 RMK A01 T01320009  RH  043%=      5-min Rain = 0
KMC4 122316Z 01007KT 13/01 A3022 RMK A01 T01320008  RH  043%=      5-min Rain = 0
KMC4 122317Z 03006KT 13/01 A3022 RMK A01 T01320008  RH  043%=      5-min Rain = 0
KMC4 122318Z 03006KT 13/01 A3022 RMK A01 T01320010  RH  043%=      5-min Rain = 0
KMC4 122319Z 03006KT 13/01 A3022 RMK A01 T01310009  RH  043%=      5-min Rain = 0
KMC4 122320Z 01006KT 13/01 A3022 RMK A01 T01310009  RH  043%=      5-min Rain = 0
KMC4 122321Z 02006KT 13/01 A3022 RMK A01 T01310009  RH  043%=      5-min Rain = 0
KMC4 122322Z 02006KT 13/01 A3022 RMK A01 T01310009  RH  043%=      5-min Rain = 0
KMC4 122323Z 01007KT 13/01 A3022 RMK A01 T01310009  RH  043%=      5-min Rain = 0
KMC4 122324Z 01006KT 13/01 A3022 RMK A01 T01310007  RH  043%=      5-min Rain = 0
KMC4 122325Z 02006KT 13/01 A3022 RMK A01 T01310008  RH  043%=      5-min Rain = 0
KMC4 122326Z 02007KT 13/01 A3022 RMK A01 T01300008  RH  043%=      5-min Rain = 0
KMC4 122327Z 02007KT 13/01 A3022 RMK A01 T01300008  RH  043%=      5-min Rain = 0
KMC4 122328Z 02006KT 13/01 A3022 RMK A01 T01300009  RH  044%=      5-min Rain = 0
KMC4 122329Z 02005KT 13/01 A3022 RMK A01 T01290010  RH  044%=      5-min Rain = 0
KMC4 122330Z 02006KT 13/01 A3022 RMK A01 T01290009  RH  044%=      5-min Rain = 0
KMC4 122331Z 02006KT 13/01 A3022 RMK A01 T01290009  RH  044%=      5-min Rain = 0
KMC4 122332Z 03006KT 13/01 A3022 RMK A01 T01290011  RH  045%=      5-min Rain = 0
KMC4 122333Z 03006KT 13/01 A3022 RMK A01 T01290009  RH  044%=      5-min Rain = 0
KMC4 122334Z 03006KT 13/01 A3022 RMK A01 T01290009  RH  044%=      5-min Rain = 0
KMC4 122335Z 03006KT 13/01 A3022 RMK A01 T01290009  RH  044%=      5-min Rain = 0
KMC4 122336Z 02005KT 13/01 A3022 RMK A01 T01280010  RH  044%=      5-min Rain = 0
KMC4 122337Z 01005KT 13/01 A3022 RMK A01 T01280011  RH  044%=      5-min Rain = 0
KMC4 122338Z 02005KT 13/01 A3022 RMK A01 T01280010  RH  044%=      5-min Rain = 0
KMC4 122339Z 02007KT 13/01 A3022 RMK A01 T01280010  RH  045%=      5-min Rain = 0
KMC4 122340Z 02006KT 13/01 A3022 RMK A01 T01280009  RH  044%=      5-min Rain = 0
KMC4 122341Z 02005KT 13/01 A3023 RMK A01 T01270009  RH  044%=      5-min Rain = 0
KMC4 122342Z 01006KT 13/01 A3023 RMK A01 T01270010  RH  045%=      5-min Rain = 0
KMC4 122343Z 02007KT 13/01 A3023 RMK A01 T01270008  RH  044%=      5-min Rain = 0
KMC4 122344Z 02007KT 13/01 A3023 RMK A01 T01270009  RH  044%=      5-min Rain = 0
KMC4 122345Z 02006KT 13/01 A3023 RMK A01 T01260010  RH  045%=      5-min Rain = 0
KMC4 122346Z 01008KT 13/01 A3023 RMK A01 T01260009  RH  045%=      5-min Rain = 0
KMC4 122347Z 01006KT 13/01 A3023 RMK A01 T01260008  RH  044%=      5-min Rain = 0
KMC4 122348Z 01006KT 13/01 A3023 RMK A01 T01260008  RH  044%=      5-min Rain = 0
KMC4 122349Z 02006KT 13/01 A3023 RMK A01 T01260010  RH  045%=      5-min Rain = 0
KMC4 122350Z 02007KT 13/01 A3023 RMK A01 T01250011  RH  046%=      5-min Rain = 0
KMC4 122351Z 02006KT 12/01 A3023 RMK A01 T01240011  RH  046%=      5-min Rain = 0
KMC4 122352Z 01006KT 12/01 A3023 RMK A01 T01230011  RH  046%=      5-min Rain = 0
KMC4 122353Z 02006KT 12/01 A3023 RMK A01 T01230009  RH  046%=      5-min Rain = 0
KMC4 122354Z 03005KT 12/01 A3023 RMK A01 T01230010  RH  046%=      5-min Rain = 0
KMC4 122355Z 03006KT 12/01 A3023 RMK A01 T01220011  RH  046%=      5-min Rain = 0
KMC4 122356Z 03005KT 12/01 A3023 RMK A01 T01220010  RH  046%=      5-min Rain = 0
KMC4 122357Z 02005KT 12/01 A3023 RMK A01 T01220011  RH  047%=      5-min Rain = 0
KMC4 122358Z 02006KT 12/01 A3023 RMK A01 T01210011  RH  047%=      5-min Rain = 0
KMC4 122359Z 03005KT 12/01 A3023 RMK A01 T01210011  RH  047%=      5-min Rain = 0
KMC4 130000Z 03005KT 12/01 A3023 RMK A01 T01200011  RH  047%=      5-min Rain = 0
KMC4 130001Z 03004KT 12/01 A3023 RMK A01 T01200011  RH  047%=      5-min Rain = 0
KMC4 130002Z 04004KT 12/01 A3023 RMK A01 T01200012  RH  048%=      5-min Rain = 0
KMC4 130003Z 04004KT 12/01 A3023 RMK A01 T01190012  RH  048%=      5-min Rain = 0
KMC4 130004Z 03004KT 12/01 A3023 RMK A01 T01190014  RH  049%=      5-min Rain = 0
KMC4 130005Z 04005KT 12/01 A3023 RMK A01 T01180014  RH  049%=      5-min Rain = 0
KMC4 130006Z 03005KT 12/01 A3023 RMK A01 T01170014  RH  049%=      5-min Rain = 0
KMC4 130007Z 02006KT 12/01 A3023 RMK A01 T01160013  RH  049%=      5-min Rain = 0
KMC4 130008Z 03005KT 12/01 A3023 RMK A01 T01160013  RH  049%=      5-min Rain = 0
KMC4 130009Z 03006KT 12/01 A3023 RMK A01 T01160013  RH  049%=      5-min Rain = 0
KMC4 130010Z 04004KT 12/01 A3023 RMK A01 T01160013  RH  049%=      5-min Rain = 0
KMC4 130011Z 03005KT 12/01 A3023 RMK A01 T01150013  RH  050%=      5-min Rain = 0
KMC4 130012Z 04005KT 12/01 A3023 RMK A01 T01150014  RH  050%=      5-min Rain = 0
KMC4 130013Z 03006KT 11/01 A3023 RMK A01 T01140013  RH  050%=      5-min Rain = 0
KMC4 130014Z 04005KT 11/01 A3023 RMK A01 T01140012  RH  049%=      5-min Rain = 0
KMC4 130015Z 04006KT 12/01 A3023 RMK A01 T01150013  RH  050%=      5-min Rain = 0
KMC4 130016Z 04005KT 11/01 A3023 RMK A01 T01140012  RH  050%=      5-min Rain = 0
KMC4 130017Z 04005KT 11/01 A3023 RMK A01 T01140013  RH  050%=      5-min Rain = 0
KMC4 130018Z 04005KT 11/01 A3023 RMK A01 T01130013  RH  050%=      5-min Rain = 0
KMC4 130019Z 04005KT 11/01 A3023 RMK A01 T01130013  RH  050%=      5-min Rain = 0
KMC4 130020Z 04006KT 11/01 A3024 RMK A01 T01120013  RH  050%=      5-min Rain = 0
KMC4 130021Z 03005KT 11/01 A3024 RMK A01 T01120013  RH  050%=      5-min Rain = 0
KMC4 130022Z 03005KT 11/01 A3024 RMK A01 T01120013  RH  050%=      5-min Rain = 0
KMC4 130023Z 03005KT 11/01 A3024 RMK A01 T01120013  RH  051%=      5-min Rain = 0
KMC4 130024Z 03005KT 11/01 A3024 RMK A01 T01110013  RH  051%=      5-min Rain = 0
KMC4 130025Z 03005KT 11/01 A3024 RMK A01 T01110013  RH  051%=      5-min Rain = 0
KMC4 130026Z 03006KT 11/01 A3024 RMK A01 T01110013  RH  051%=      5-min Rain = 0
KMC4 130027Z 03006KT 11/01 A3024 RMK A01 T01100013  RH  051%=      5-min Rain = 0
KMC4 130028Z 04006KT 11/01 A3024 RMK A01 T01090013  RH  051%=      5-min Rain = 0
KMC4 130029Z 04005KT 11/01 A3024 RMK A01 T01090013  RH  051%=      5-min Rain = 0
KMC4 130030Z 04005KT 11/01 A3024 RMK A01 T01090014  RH  052%=      5-min Rain = 0
KMC4 130031Z 04005KT 11/01 A3024 RMK A01 T01090013  RH  052%=      5-min Rain = 0
KMC4 130032Z 03005KT 11/01 A3024 RMK A01 T01080013  RH  052%=      5-min Rain = 0
KMC4 130033Z 03005KT 11/01 A3024 RMK A01 T01080013  RH  052%=      5-min Rain = 0
KMC4 130034Z 03005KT 11/01 A3024 RMK A01 T01070014  RH  052%=      5-min Rain = 0
KMC4 130035Z 03005KT 11/01 A3024 RMK A01 T01070013  RH  052%=      5-min Rain = 0
KMC4 130036Z 03005KT 11/01 A3024 RMK A01 T01060013  RH  053%=      5-min Rain = 0
KMC4 130037Z 03006KT 11/01 A3024 RMK A01 T01060014  RH  053%=      5-min Rain = 0
KMC4 130038Z 03006KT 11/01 A3024 RMK A01 T01060012  RH  052%=      5-min Rain = 0
KMC4 130039Z 03005KT 11/01 A3024 RMK A01 T01060012  RH  052%=      5-min Rain = 0
KMC4 130040Z 03005KT 11/01 A3024 RMK A01 T01060013  RH  053%=      5-min Rain = 0
KMC4 130041Z 03005KT 11/01 A3024 RMK A01 T01060013  RH  053%=      5-min Rain = 0
KMC4 130042Z 04005KT 11/01 A3025 RMK A01 T01060013  RH  053%=      5-min Rain = 0
KMC4 130043Z 04005KT 11/01 A3025 RMK A01 T01050013  RH  053%=      5-min Rain = 0
KMC4 130044Z 04004KT 11/01 A3025 RMK A01 T01050013  RH  053%=      5-min Rain = 0
KMC4 130045Z 04004KT 11/01 A3025 RMK A01 T01050014  RH  053%=      5-min Rain = 0
KMC4 130046Z 04004KT 10/01 A3025 RMK A01 T01040014  RH  054%=      5-min Rain = 0
KMC4 130047Z 04004KT 10/01 A3025 RMK A01 T01030013  RH  054%=      5-min Rain = 0
KMC4 130048Z 04004KT 10/01 A3024 RMK A01 T01030014  RH  054%=      5-min Rain = 0
KMC4 130049Z 04005KT 10/01 A3024 RMK A01 T01020014  RH  054%=      5-min Rain = 0
KMC4 130050Z 04005KT 10/01 A3024 RMK A01 T01020014  RH  054%=      5-min Rain = 0
KMC4 130051Z 04005KT 10/01 A3024 RMK A01 T01020014  RH  054%=      5-min Rain = 0
KMC4 130052Z 04005KT 10/01 A3025 RMK A01 T01010014  RH  055%=      5-min Rain = 0
KMC4 130053Z 04005KT 10/01 A3025 RMK A01 T01010014  RH  055%=      5-min Rain = 0
KMC4 130054Z 04005KT 10/01 A3025 RMK A01 T01000014  RH  055%=      5-min Rain = 0
KMC4 130055Z 04005KT 10/01 A3025 RMK A01 T01000014  RH  055%=      5-min Rain = 0
KMC4 130056Z 04005KT 10/01 A3025 RMK A01 T00990014  RH  055%=      5-min Rain = 0
KMC4 130057Z 04005KT 10/01 A3025 RMK A01 T00990014  RH  055%=      5-min Rain = 0
KMC4 130058Z 04006KT 10/01 A3025 RMK A01 T00990013  RH  055%=      5-min Rain = 0
KMC4 130059Z 04005KT 10/01 A3025 RMK A01 T00990014  RH  055%=      5-min Rain = 0
KMC4 130100Z 04006KT 10/01 A3025 RMK A01 T00990014  RH  055%=      5-min Rain = 0
KMC4 130101Z 04006KT 10/01 A3025 RMK A01 T00990013  RH  055%=      5-min Rain = 0
KMC4 130102Z 04005KT 10/01 A3025 RMK A01 T00990013  RH  055%=      5-min Rain = 0
KMC4 130103Z 04005KT 10/01 A3025 RMK A01 T00990013  RH  055%=      5-min Rain = 0
KMC4 130104Z 04006KT 10/01 A3025 RMK A01 T00990014  RH  056%=      5-min Rain = 0
KMC4 130105Z 04005KT 10/01 A3025 RMK A01 T00980013  RH  055%=      5-min Rain = 0
KMC4 130106Z 05005KT 10/01 A3025 RMK A01 T00990013  RH  055%=      5-min Rain = 0
KMC4 130107Z 05005KT 10/01 A3025 RMK A01 T00980013  RH  055%=      5-min Rain = 0
KMC4 130108Z 05005KT 10/01 A3025 RMK A01 T00980013  RH  055%=      5-min Rain = 0
KMC4 130109Z 05005KT 10/01 A3025 RMK A01 T00980014  RH  056%=      5-min Rain = 0
KMC4 130110Z 05005KT 10/01 A3025 RMK A01 T00980013  RH  056%=      5-min Rain = 0
KMC4 130111Z 04005KT 10/01 A3025 RMK A01 T00970014  RH  056%=      5-min Rain = 0
KMC4 130112Z 05005KT 10/01 A3025 RMK A01 T00960014  RH  056%=      5-min Rain = 0
KMC4 130113Z 05005KT 10/01 A3025 RMK A01 T00960014  RH  056%=      5-min Rain = 0
KMC4 130114Z 05005KT 10/01 A3025 RMK A01 T00960014  RH  057%=      5-min Rain = 0
KMC4 130115Z 04005KT 10/01 A3025 RMK A01 T00960014  RH  057%=      5-min Rain = 0
KMC4 130116Z 05005KT 10/01 A3025 RMK A01 T00950013  RH  057%=      5-min Rain = 0
KMC4 130117Z 05005KT 10/01 A3025 RMK A01 T00950013  RH  057%=      5-min Rain = 0
KMC4 130118Z 05006KT 10/01 A3025 RMK A01 T00950013  RH  057%=      5-min Rain = 0
KMC4 130119Z 06005KT 09/01 A3025 RMK A01 T00940013  RH  057%=      5-min Rain = 0
KMC4 130120Z 05005KT 09/01 A3025 RMK A01 T00940013  RH  057%=      5-min Rain = 0
KMC4 130121Z 05005KT 09/01 A3025 RMK A01 T00930013  RH  057%=      5-min Rain = 0
KMC4 130122Z 05006KT 09/01 A3025 RMK A01 T00920013  RH  058%=      5-min Rain = 0
KMC4 130123Z 05006KT 09/01 A3025 RMK A01 T00920013  RH  058%=      5-min Rain = 0
KMC4 130124Z 05006KT 09/01 A3025 RMK A01 T00920013  RH  058%=      5-min Rain = 0
KMC4 130125Z 05006KT 09/01 A3025 RMK A01 T00920013  RH  058%=      5-min Rain = 0
KMC4 130126Z 05006KT 09/01 A3025 RMK A01 T00910013  RH  058%=      5-min Rain = 0
KMC4 130127Z 05005KT 09/01 A3025 RMK A01 T00910013  RH  058%=      5-min Rain = 0
KMC4 130128Z 06005KT 09/01 A3025 RMK A01 T00910012  RH  058%=      5-min Rain = 0
KMC4 130129Z 06006KT 09/01 A3025 RMK A01 T00910012  RH  058%=      5-min Rain = 0
KMC4 130130Z 06005KT 09/01 A3025 RMK A01 T00910012  RH  058%=      5-min Rain = 0
KMC4 130131Z 05006KT 09/01 A3025 RMK A01 T00910013  RH  058%=      5-min Rain = 0
KMC4 130132Z 06006KT 09/01 A3025 RMK A01 T00910013  RH  058%=      5-min Rain = 0
KMC4 130133Z 06006KT 09/01 A3025 RMK A01 T00900013  RH  059%=      5-min Rain = 0
KMC4 130134Z 05006KT 09/01 A3025 RMK A01 T00900013  RH  059%=      5-min Rain = 0
KMC4 130135Z 05006KT 09/01 A3025 RMK A01 T00900013  RH  059%=      5-min Rain = 0
KMC4 130136Z 04005KT 09/01 A3025 RMK A01 T00900014  RH  059%=      5-min Rain = 0
KMC4 130137Z 04005KT 09/01 A3025 RMK A01 T00890014  RH  059%=      5-min Rain = 0
KMC4 130138Z 05005KT 09/01 A3025 RMK A01 T00880014  RH  060%=      5-min Rain = 0
KMC4 130139Z 05005KT 09/01 A3025 RMK A01 T00880014  RH  060%=      5-min Rain = 0
KMC4 130140Z 05005KT 09/01 A3025 RMK A01 T00870014  RH  060%=      5-min Rain = 0
KMC4 130141Z 05005KT 09/01 A3025 RMK A01 T00870014  RH  060%=      5-min Rain = 0
KMC4 130142Z 05005KT 09/01 A3025 RMK A01 T00870014  RH  060%=      5-min Rain = 0
KMC4 130143Z 05004KT 09/01 A3025 RMK A01 T00870014  RH  060%=      5-min Rain = 0
KMC4 130144Z 04005KT 09/02 A3025 RMK A01 T00870015  RH  061%=      5-min Rain = 0
KMC4 130145Z 04005KT 09/01 A3025 RMK A01 T00860014  RH  061%=      5-min Rain = 0
KMC4 130146Z 04005KT 09/01 A3025 RMK A01 T00860014  RH  061%=      5-min Rain = 0
KMC4 130147Z 05006KT 09/01 A3025 RMK A01 T00860014  RH  060%=      5-min Rain = 0
KMC4 130148Z 04006KT 09/01 A3026 RMK A01 T00860013  RH  060%=      5-min Rain = 0
KMC4 130149Z 05005KT 09/01 A3026 RMK A01 T00870014  RH  060%=      5-min Rain = 0
KMC4 130150Z 05005KT 09/01 A3026 RMK A01 T00870014  RH  060%=      5-min Rain = 0
KMC4 130151Z 05006KT 09/01 A3026 RMK A01 T00880014  RH  060%=      5-min Rain = 0
KMC4 130152Z 05006KT 09/01 A3026 RMK A01 T00880013  RH  060%=      5-min Rain = 0
KMC4 130153Z 05005KT 09/01 A3026 RMK A01 T00880014  RH  060%=      5-min Rain = 0
KMC4 130154Z 05005KT 09/01 A3026 RMK A01 T00870014  RH  060%=      5-min Rain = 0
KMC4 130155Z 05005KT 09/01 A3026 RMK A01 T00870014  RH  060%=      5-min Rain = 0
KMC4 130156Z 05006KT 09/01 A3026 RMK A01 T00880014  RH  060%=      5-min Rain = 0
KMC4 130157Z 04005KT 09/01 A3026 RMK A01 T00870013  RH  060%=      5-min Rain = 0
KMC4 130158Z 05005KT 09/01 A3026 RMK A01 T00880013  RH  059%=      5-min Rain = 0
KMC4 130159Z 04006KT 09/01 A3026 RMK A01 T00880013  RH  059%=      5-min Rain = 0
KMC4 130200Z 04005KT 09/01 A3026 RMK A01 T00890013  RH  059%=      5-min Rain = 0
KMC4 130201Z 04006KT 09/01 A3026 RMK A01 T00890013  RH  059%=      5-min Rain = 0
KMC4 130202Z 04006KT 09/01 A3026 RMK A01 T00890014  RH  059%=      5-min Rain = 0
KMC4 130203Z 05006KT 09/01 A3025 RMK A01 T00890013  RH  059%=      5-min Rain = 0
KMC4 130204Z 05006KT 09/01 A3026 RMK A01 T00890013  RH  059%=      5-min Rain = 0
KMC4 130205Z 05005KT 09/01 A3026 RMK A01 T00890013  RH  059%=      5-min Rain = 0
KMC4 130206Z 05005KT 09/01 A3026 RMK A01 T00890013  RH  059%=      5-min Rain = 0
KMC4 130207Z 06004KT 09/01 A3026 RMK A01 T00880013  RH  059%=      5-min Rain = 0
KMC4 130208Z 06005KT 09/01 A3026 RMK A01 T00880013  RH  059%=      5-min Rain = 0
KMC4 130209Z 06005KT 09/01 A3026 RMK A01 T00870013  RH  059%=      5-min Rain = 0
KMC4 130210Z 06005KT 09/01 A3026 RMK A01 T00870013  RH  060%=      5-min Rain = 0
KMC4 130211Z 07004KT 09/01 A3026 RMK A01 T00870013  RH  060%=      5-min Rain = 0
KMC4 130212Z 07004KT 09/01 A3026 RMK A01 T00860013  RH  060%=      5-min Rain = 0
KMC4 130213Z 06004KT 08/01 A3026 RMK A01 T00840014  RH  061%=      5-min Rain = 0
KMC4 130214Z 06006KT 08/01 A3026 RMK A01 T00820014  RH  062%=      5-min Rain = 0
KMC4 130215Z 07006KT 08/01 A3026 RMK A01 T00820013  RH  062%=      5-min Rain = 0
KMC4 130216Z 06007KT 08/01 A3026 RMK A01 T00820013  RH  062%=      5-min Rain = 0
KMC4 130217Z 06007KT 08/01 A3026 RMK A01 T00820013  RH  062%=      5-min Rain = 0
KMC4 130218Z 06006KT 08/01 A3026 RMK A01 T00830013  RH  061%=      5-min Rain = 0
KMC4 130219Z 07005KT 08/01 A3026 RMK A01 T00840013  RH  061%=      5-min Rain = 0
KMC4 130220Z 07005KT 08/01 A3026 RMK A01 T00840013  RH  061%=      5-min Rain = 0
KMC4 130221Z 07006KT 08/01 A3026 RMK A01 T00830014  RH  061%=      5-min Rain = 0
KMC4 130222Z 06005KT 08/01 A3026 RMK A01 T00830014  RH  062%=      5-min Rain = 0
KMC4 130223Z 06005KT 08/01 A3027 RMK A01 T00820014  RH  062%=      5-min Rain = 0
KMC4 130224Z 05006KT 08/01 A3027 RMK A01 T00810014  RH  062%=      5-min Rain = 0
KMC4 130225Z 05006KT 08/01 A3027 RMK A01 T00810014  RH  063%=      5-min Rain = 0
KMC4 130226Z 05006KT 08/01 A3027 RMK A01 T00810014  RH  063%=      5-min Rain = 0
KMC4 130227Z 05006KT 08/01 A3027 RMK A01 T00810014  RH  063%=      5-min Rain = 0
KMC4 130228Z 05006KT 08/02 A3026 RMK A01 T00810015  RH  063%=      5-min Rain = 0
KMC4 130229Z 06007KT 08/01 A3026 RMK A01 T00810014  RH  063%=      5-min Rain = 0
KMC4 130230Z 06007KT 08/01 A3026 RMK A01 T00810014  RH  063%=      5-min Rain = 0
KMC4 130231Z 06006KT 08/01 A3026 RMK A01 T00800014  RH  063%=      5-min Rain = 0
KMC4 130232Z 06007KT 08/01 A3027 RMK A01 T00800014  RH  063%=      5-min Rain = 0
KMC4 130233Z 06007KT 08/01 A3027 RMK A01 T00800014  RH  063%=      5-min Rain = 0
KMC4 130234Z 05006KT 08/01 A3027 RMK A01 T00800014  RH  063%=      5-min Rain = 0
KMC4 130235Z 06007KT 08/01 A3027 RMK A01 T00790014  RH  064%=      5-min Rain = 0
KMC4 130236Z 05006KT 08/02 A3027 RMK A01 T00790015  RH  064%=      5-min Rain = 0
KMC4 130237Z 05006KT 08/02 A3027 RMK A01 T00780015  RH  064%=      5-min Rain = 0
KMC4 130238Z 05007KT 08/01 A3027 RMK A01 T00780014  RH  064%=      5-min Rain = 0
KMC4 130239Z 05008KT 08/01 A3027 RMK A01 T00780014  RH  064%=      5-min Rain = 0
KMC4 130240Z 05006KT 08/01 A3027 RMK A01 T00780014  RH  064%=      5-min Rain = 0
KMC4 130241Z 06007KT 08/01 A3027 RMK A01 T00780014  RH  064%=      5-min Rain = 0
KMC4 130242Z 05007KT 08/01 A3027 RMK A01 T00770014  RH  064%=      5-min Rain = 0
KMC4 130243Z 05007KT 08/01 A3027 RMK A01 T00770014  RH  064%=      5-min Rain = 0
KMC4 130244Z 05006KT 08/01 A3027 RMK A01 T00770014  RH  064%=      5-min Rain = 0
KMC4 130245Z 05007KT 08/01 A3027 RMK A01 T00760013  RH  064%=      5-min Rain = 0
KMC4 130246Z 05006KT 08/01 A3027 RMK A01 T00760013  RH  064%=      5-min Rain = 0
KMC4 130247Z 05006KT 08/01 A3027 RMK A01 T00760014  RH  064%=      5-min Rain = 0
KMC4 130248Z 05007KT 08/01 A3027 RMK A01 T00760013  RH  065%=      5-min Rain = 0
KMC4 130249Z 05007KT 08/01 A3027 RMK A01 T00750013  RH  065%=      5-min Rain = 0
KMC4 130250Z 06006KT 08/01 A3027 RMK A01 T00750013  RH  065%=      5-min Rain = 0
KMC4 130251Z 06006KT 08/01 A3027 RMK A01 T00750013  RH  065%=      5-min Rain = 0
KMC4 130252Z 06006KT 07/01 A3027 RMK A01 T00740013  RH  065%=      5-min Rain = 0
KMC4 130253Z 06007KT 07/01 A3027 RMK A01 T00740013  RH  065%=      5-min Rain = 0
KMC4 130254Z 06007KT 07/01 A3027 RMK A01 T00730014  RH  066%=      5-min Rain = 0
KMC4 130255Z 06007KT 07/01 A3027 RMK A01 T00720013  RH  066%=      5-min Rain = 0
KMC4 130256Z 06007KT 07/01 A3027 RMK A01 T00730013  RH  066%=      5-min Rain = 0
KMC4 130257Z 06006KT 07/01 A3027 RMK A01 T00730013  RH  066%=      5-min Rain = 0
KMC4 130258Z 06006KT 07/01 A3027 RMK A01 T00720013  RH  066%=      5-min Rain = 0
KMC4 130259Z 06006KT 07/01 A3027 RMK A01 T00720013  RH  066%=      5-min Rain = 0
KMC4 130300Z 06005KT 07/01 A3027 RMK A01 T00710013  RH  066%=      5-min Rain = 0
KMC4 130301Z 06005KT 07/01 A3027 RMK A01 T00710013  RH  067%=      5-min Rain = 0
KMC4 130302Z 05006KT 07/01 A3027 RMK A01 T00700013  RH  067%=      5-min Rain = 0
KMC4 130303Z 06005KT 07/01 A3027 RMK A01 T00700013  RH  067%=      5-min Rain = 0
KMC4 130304Z 06006KT 07/01 A3027 RMK A01 T00700013  RH  067%=      5-min Rain = 0
KMC4 130305Z 06006KT 07/01 A3027 RMK A01 T00700013  RH  067%=      5-min Rain = 0
KMC4 130306Z 06006KT 07/01 A3027 RMK A01 T00700013  RH  067%=      5-min Rain = 0
KMC4 130307Z 06006KT 07/01 A3027 RMK A01 T00690012  RH  067%=      5-min Rain = 0
KMC4 130308Z 07006KT 07/01 A3027 RMK A01 T00690013  RH  067%=      5-min Rain = 0
KMC4 130309Z 06006KT 07/01 A3027 RMK A01 T00690013  RH  067%=      5-min Rain = 0
KMC4 130310Z 07006KT 07/01 A3027 RMK A01 T00690012  RH  067%=      5-min Rain = 0
KMC4 130311Z 06006KT 07/01 A3027 RMK A01 T00690012  RH  067%=      5-min Rain = 0
KMC4 130312Z 06006KT 07/01 A3027 RMK A01 T00680012  RH  068%=      5-min Rain = 0
KMC4 130313Z 06007KT 07/01 A3027 RMK A01 T00680012  RH  068%=      5-min Rain = 0
KMC4 130314Z 06006KT 07/01 A3027 RMK A01 T00670012  RH  068%=      5-min Rain = 0
KMC4 130315Z 06006KT 07/01 A3027 RMK A01 T00670012  RH  068%=      5-min Rain = 0
KMC4 130316Z 06006KT 07/01 A3027 RMK A01 T00660012  RH  068%=      5-min Rain = 0
KMC4 130317Z 06006KT 07/01 A3027 RMK A01 T00660012  RH  069%=      5-min Rain = 0
KMC4 130318Z 06006KT 07/01 A3027 RMK A01 T00660012  RH  069%=      5-min Rain = 0
KMC4 130319Z 06006KT 07/01 A3027 RMK A01 T00660012  RH  069%=      5-min Rain = 0
KMC4 130320Z 06006KT 07/01 A3027 RMK A01 T00660012  RH  069%=      5-min Rain = 0
KMC4 130321Z 06006KT 07/01 A3027 RMK A01 T00650012  RH  069%=      5-min Rain = 0
KMC4 130322Z 06007KT 07/01 A3027 RMK A01 T00660012  RH  069%=      5-min Rain = 0
KMC4 130323Z 06007KT 07/01 A3027 RMK A01 T00660012  RH  068%=      5-min Rain = 0
KMC4 130324Z 06006KT 07/01 A3027 RMK A01 T00660012  RH  068%=      5-min Rain = 0
KMC4 130325Z 06006KT 07/01 A3027 RMK A01 T00660012  RH  069%=      5-min Rain = 0
KMC4 130326Z 06006KT 07/01 A3028 RMK A01 T00660012  RH  069%=      5-min Rain = 0
KMC4 130327Z 06006KT 07/01 A3028 RMK A01 T00650012  RH  069%=      5-min Rain = 0
KMC4 130328Z 05006KT 07/01 A3028 RMK A01 T00650012  RH  069%=      5-min Rain = 0
KMC4 130329Z 06005KT 06/01 A3028 RMK A01 T00640012  RH  069%=      5-min Rain = 0
KMC4 130330Z 05006KT 06/01 A3028 RMK A01 T00640012  RH  069%=      5-min Rain = 0
KMC4 130331Z 05006KT 06/01 A3028 RMK A01 T00640012  RH  069%=      5-min Rain = 0
KMC4 130332Z 05006KT 06/01 A3028 RMK A01 T00640012  RH  069%=      5-min Rain = 0
KMC4 130333Z 05006KT 06/01 A3028 RMK A01 T00640012  RH  069%=      5-min Rain = 0
KMC4 130334Z 05005KT 06/01 A3028 RMK A01 T00640012  RH  069%=      5-min Rain = 0
KMC4 130335Z 05005KT 06/01 A3028 RMK A01 T00640012  RH  069%=      5-min Rain = 0
KMC4 130336Z 05006KT 06/01 A3028 RMK A01 T00640012  RH  069%=      5-min Rain = 0
KMC4 130337Z 05005KT 06/01 A3028 RMK A01 T00640011  RH  069%=      5-min Rain = 0
KMC4 130338Z 05006KT 06/01 A3028 RMK A01 T00640011  RH  069%=      5-min Rain = 0
KMC4 130339Z 06006KT 06/01 A3028 RMK A01 T00640011  RH  069%=      5-min Rain = 0
KMC4 130340Z 06006KT 06/01 A3028 RMK A01 T00640011  RH  069%=      5-min Rain = 0
KMC4 130341Z 05005KT 06/01 A3028 RMK A01 T00640011  RH  069%=      5-min Rain = 0
KMC4 130342Z 05005KT 06/01 A3028 RMK A01 T00640011  RH  069%=      5-min Rain = 0
KMC4 130343Z 06005KT 06/01 A3028 RMK A01 T00640011  RH  069%=      5-min Rain = 0
KMC4 130344Z 06006KT 06/01 A3028 RMK A01 T00640011  RH  069%=      5-min Rain = 0
KMC4 130345Z 06006KT 06/01 A3028 RMK A01 T00640011  RH  069%=      5-min Rain = 0
KMC4 130346Z 06007KT 06/01 A3028 RMK A01 T00630011  RH  069%=      5-min Rain = 0
KMC4 130347Z 06006KT 06/01 A3028 RMK A01 T00630011  RH  069%=      5-min Rain = 0
KMC4 130348Z 07006KT 06/01 A3028 RMK A01 T00630011  RH  069%=      5-min Rain = 0
KMC4 130349Z 06005KT 06/01 A3028 RMK A01 T00630011  RH  069%=      5-min Rain = 0
KMC4 130350Z 06005KT 06/01 A3028 RMK A01 T00630011  RH  069%=      5-min Rain = 0
KMC4 130351Z 06005KT 06/01 A3028 RMK A01 T00620011  RH  069%=      5-min Rain = 0
KMC4 130352Z 06006KT 06/01 A3028 RMK A01 T00620011  RH  070%=      5-min Rain = 0
KMC4 130353Z 06006KT 06/01 A3028 RMK A01 T00620011  RH  070%=      5-min Rain = 0
KMC4 130354Z 06007KT 06/01 A3028 RMK A01 T00620010  RH  069%=      5-min Rain = 0
KMC4 130355Z 06007KT 06/01 A3028 RMK A01 T00620010  RH  069%=      5-min Rain = 0
KMC4 130356Z 06007KT 06/01 A3028 RMK A01 T00620010  RH  069%=      5-min Rain = 0
KMC4 130357Z 06006KT 06/01 A3028 RMK A01 T00620010  RH  069%=      5-min Rain = 0
KMC4 130358Z 05007KT 06/01 A3028 RMK A01 T00620010  RH  070%=      5-min Rain = 0
KMC4 130359Z 05006KT 06/01 A3028 RMK A01 T00610010  RH  070%=      5-min Rain = 0
KMC4 130400Z 06006KT 06/01 A3028 RMK A01 T00620010  RH  070%=      5-min Rain = 0
KMC4 130401Z 05007KT 06/01 A3028 RMK A01 T00610010  RH  069%=      5-min Rain = 0
KMC4 130402Z 05007KT 06/01 A3028 RMK A01 T00610009  RH  069%=      5-min Rain = 0
KMC4 130403Z 06005KT 06/01 A3028 RMK A01 T00620010  RH  069%=      5-min Rain = 0
KMC4 130404Z 05007KT 06/01 A3028 RMK A01 T00610010  RH  070%=      5-min Rain = 0
KMC4 130405Z 05007KT 06/01 A3028 RMK A01 T00610010  RH  070%=      5-min Rain = 0
KMC4 130406Z 05006KT 06/01 A3028 RMK A01 T00610010  RH  069%=      5-min Rain = 0
KMC4 130407Z 06006KT 06/01 A3028 RMK A01 T00610010  RH  069%=      5-min Rain = 0
KMC4 130408Z 06005KT 06/01 A3028 RMK A01 T00610010  RH  070%=      5-min Rain = 0
KMC4 130409Z 06006KT 06/01 A3028 RMK A01 T00610010  RH  070%=      5-min Rain = 0
KMC4 130410Z 06006KT 06/01 A3028 RMK A01 T00610010  RH  070%=      5-min Rain = 0
KMC4 130411Z 06006KT 06/01 A3028 RMK A01 T00610009  RH  070%=      5-min Rain = 0
KMC4 130412Z 06006KT 06/01 A3028 RMK A01 T00610009  RH  069%=      5-min Rain = 0
KMC4 130413Z 06005KT 06/01 A3028 RMK A01 T00620009  RH  069%=      5-min Rain = 0
KMC4 130414Z 07005KT 06/01 A3028 RMK A01 T00620009  RH  069%=      5-min Rain = 0
KMC4 130415Z 06007KT 06/01 A3028 RMK A01 T00620009  RH  069%=      5-min Rain = 0
KMC4 130416Z 07007KT 06/01 A3028 RMK A01 T00630009  RH  069%=      5-min Rain = 0
KMC4 130417Z 07006KT 06/01 A3028 RMK A01 T00630009  RH  068%=      5-min Rain = 0
KMC4 130418Z 07006KT 06/01 A3028 RMK A01 T00640009  RH  068%=      5-min Rain = 0
KMC4 130419Z 07006KT 06/01 A3028 RMK A01 T00640009  RH  068%=      5-min Rain = 0
KMC4 130420Z 07005KT 06/01 A3029 RMK A01 T00640010  RH  068%=      5-min Rain = 0
KMC4 130421Z 07005KT 06/01 A3029 RMK A01 T00630010  RH  069%=      5-min Rain = 0
KMC4 130422Z 07005KT 06/01 A3029 RMK A01 T00630009  RH  068%=      5-min Rain = 0
KMC4 130423Z 07006KT 06/01 A3029 RMK A01 T00630010  RH  069%=      5-min Rain = 0
KMC4 130424Z 08005KT 06/01 A3029 RMK A01 T00630010  RH  069%=      5-min Rain = 0
KMC4 130425Z 08005KT 06/01 A3029 RMK A01 T00630009  RH  069%=      5-min Rain = 0
KMC4 130426Z 08005KT 06/01 A3029 RMK A01 T00620009  RH  069%=      5-min Rain = 0
KMC4 130427Z 07005KT 06/01 A3029 RMK A01 T00620009  RH  069%=      5-min Rain = 0
KMC4 130428Z 07005KT 06/01 A3029 RMK A01 T00620009  RH  069%=      5-min Rain = 0
KMC4 130429Z 07004KT 06/01 A3029 RMK A01 T00620009  RH  069%=      5-min Rain = 0
KMC4 130430Z 07005KT 06/01 A3029 RMK A01 T00610009  RH  070%=      5-min Rain = 0
KMC4 130431Z 07004KT 06/01 A3029 RMK A01 T00610009  RH  070%=      5-min Rain = 0
KMC4 130432Z 07005KT 06/01 A3029 RMK A01 T00610009  RH  069%=      5-min Rain = 0
KMC4 130433Z 07005KT 06/01 A3029 RMK A01 T00610009  RH  069%=      5-min Rain = 0
KMC4 130434Z 07005KT 06/01 A3029 RMK A01 T00620009  RH  069%=      5-min Rain = 0
KMC4 130435Z 08004KT 06/01 A3029 RMK A01 T00610009  RH  069%=      5-min Rain = 0
KMC4 130436Z 08005KT 06/01 A3029 RMK A01 T00610009  RH  069%=      5-min Rain = 0
KMC4 130437Z 08005KT 06/01 A3029 RMK A01 T00610009  RH  070%=      5-min Rain = 0
KMC4 130438Z 09005KT 06/01 A3029 RMK A01 T00600009  RH  070%=      5-min Rain = 0
KMC4 130439Z 09005KT 06/01 A3029 RMK A01 T00590009  RH  071%=      5-min Rain = 0
KMC4 130440Z 09004KT 06/01 A3029 RMK A01 T00570010  RH  072%=      5-min Rain = 0
KMC4 130441Z 09004KT 06/01 A3029 RMK A01 T00550010  RH  073%=      5-min Rain = 0
KMC4 130442Z 08004KT 05/01 A3029 RMK A01 T00530010  RH  073%=      5-min Rain = 0
KMC4 130443Z 08004KT 05/01 A3029 RMK A01 T00530010  RH  074%=      5-min Rain = 0
KMC4 130444Z 07004KT 05/01 A3029 RMK A01 T00520009  RH  074%=      5-min Rain = 0
KMC4 130445Z 07004KT 05/01 A3029 RMK A01 T00530009  RH  074%=      5-min Rain = 0
KMC4 130446Z 07004KT 05/01 A303 RMK A01 T00530009  RH  073%=      5-min Rain = 0
KMC4 130447Z 08004KT 05/01 A303 RMK A01 T00540009  RH  073%=      5-min Rain = 0
KMC4 130448Z 07004KT 05/01 A303 RMK A01 T00540009  RH  073%=      5-min Rain = 0
KMC4 130449Z 07005KT 05/01 A303 RMK A01 T00540009  RH  073%=      5-min Rain = 0
KMC4 130450Z 07005KT 05/01 A303 RMK A01 T00540009  RH  072%=      5-min Rain = 0
KMC4 130451Z 07004KT 05/01 A303 RMK A01 T00540009  RH  072%=      5-min Rain = 0
KMC4 130452Z 07004KT 06/01 A303 RMK A01 T00550009  RH  072%=      5-min Rain = 0
KMC4 130453Z 06005KT 06/01 A303 RMK A01 T00550008  RH  072%=      5-min Rain = 0
KMC4 130454Z 06004KT 06/01 A303 RMK A01 T00550008  RH  072%=      5-min Rain = 0
KMC4 130455Z 06004KT 06/01 A303 RMK A01 T00550008  RH  072%=      5-min Rain = 0
KMC4 130456Z 07004KT 06/01 A303 RMK A01 T00550008  RH  072%=      5-min Rain = 0
KMC4 130457Z 06004KT 06/01 A303 RMK A01 T00560008  RH  072%=      5-min Rain = 0
KMC4 130458Z 07004KT 06/01 A303 RMK A01 T00550008  RH  072%=      5-min Rain = 0
KMC4 130459Z 07005KT 06/01 A303 RMK A01 T00560008  RH  071%=      5-min Rain = 0
KMC4 130500Z 07005KT 06/01 A303 RMK A01 T00560008  RH  071%=      5-min Rain = 0
KMC4 130501Z 06005KT 06/01 A303 RMK A01 T00560008  RH  071%=      5-min Rain = 0
KMC4 130502Z 06004KT 06/01 A303 RMK A01 T00560008  RH  071%=      5-min Rain = 0
KMC4 130503Z 06005KT 06/01 A303 RMK A01 T00560008  RH  071%=      5-min Rain = 0
KMC4 130504Z 07004KT 06/01 A303 RMK A01 T00560007  RH  071%=      5-min Rain = 0
KMC4 130505Z 07004KT 06/01 A303 RMK A01 T00560008  RH  071%=      5-min Rain = 0
KMC4 130506Z 07005KT 06/01 A303 RMK A01 T00570008  RH  071%=      5-min Rain = 0
KMC4 130507Z 07004KT 06/01 A303 RMK A01 T00560007  RH  071%=      5-min Rain = 0
KMC4 130508Z 08004KT 06/01 A303 RMK A01 T00570008  RH  071%=      5-min Rain = 0
KMC4 130509Z 07005KT 06/01 A303 RMK A01 T00570008  RH  071%=      5-min Rain = 0
KMC4 130510Z 07005KT 06/01 A303 RMK A01 T00560007  RH  071%=      5-min Rain = 0
KMC4 130511Z 07006KT 06/01 A303 RMK A01 T00560008  RH  071%=      5-min Rain = 0
KMC4 130512Z 07005KT 06/01 A303 RMK A01 T00570008  RH  071%=      5-min Rain = 0
KMC4 130513Z 07005KT 06/01 A303 RMK A01 T00570008  RH  071%=      5-min Rain = 0
KMC4 130514Z 08005KT 06/01 A303 RMK A01 T00570008  RH  071%=      5-min Rain = 0
KMC4 130515Z 08004KT 06/01 A303 RMK A01 T00570008  RH  071%=      5-min Rain = 0
KMC4 130516Z 09004KT 06/01 A303 RMK A01 T00550008  RH  072%=      5-min Rain = 0
KMC4 130517Z 08003KT 05/01 A303 RMK A01 T00530008  RH  073%=      5-min Rain = 0
KMC4 130518Z 08004KT 05/01 A303 RMK A01 T00500007  RH  074%=      5-min Rain = 0
KMC4 130519Z 07004KT 05/01 A303 RMK A01 T00500008  RH  074%=      5-min Rain = 0
KMC4 130520Z 07006KT 05/01 A303 RMK A01 T00500008  RH  074%=      5-min Rain = 0
KMC4 130521Z 07006KT 05/01 A3029 RMK A01 T00500008  RH  074%=      5-min Rain = 0
KMC4 130522Z 07007KT 05/01 A3029 RMK A01 T00510007  RH  074%=      5-min Rain = 0
KMC4 130523Z 07007KT 05/01 A3029 RMK A01 T00510007  RH  073%=      5-min Rain = 0
KMC4 130524Z 07008KT 05/01 A3029 RMK A01 T00510007  RH  073%=      5-min Rain = 0
KMC4 130525Z 07007KT 05/01 A3029 RMK A01 T00510007  RH  073%=      5-min Rain = 0
KMC4 130526Z 07007KT 05/01 A3029 RMK A01 T00520007  RH  073%=      5-min Rain = 0
KMC4 130527Z 07007KT 05/01 A3029 RMK A01 T00520007  RH  073%=      5-min Rain = 0
KMC4 130528Z 07007KT 05/01 A3029 RMK A01 T00520007  RH  073%=      5-min Rain = 0
KMC4 130529Z 06007KT 05/01 A3029 RMK A01 T00520007  RH  073%=      5-min Rain = 0
KMC4 130530Z 07007KT 05/01 A3029 RMK A01 T00510007  RH  073%=      5-min Rain = 0
KMC4 130531Z 06007KT 05/01 A3029 RMK A01 T00510007  RH  073%=      5-min Rain = 0
KMC4 130532Z 06007KT 05/01 A3029 RMK A01 T00500007  RH  074%=      5-min Rain = 0
KMC4 130533Z 06008KT 05/01 A3029 RMK A01 T00500007  RH  074%=      5-min Rain = 0
KMC4 130534Z 07007KT 05/01 A3029 RMK A01 T00500007  RH  074%=      5-min Rain = 0
KMC4 130535Z 06007KT 05/01 A3029 RMK A01 T00500007  RH  074%=      5-min Rain = 0
KMC4 130536Z 06007KT 05/01 A3029 RMK A01 T00510007  RH  073%=      5-min Rain = 0
KMC4 130537Z 06006KT 05/01 A3029 RMK A01 T00510007  RH  073%=      5-min Rain = 0
KMC4 130538Z 06007KT 05/01 A3029 RMK A01 T00510007  RH  073%=      5-min Rain = 0
KMC4 130539Z 05007KT 05/01 A3029 RMK A01 T00510007  RH  073%=      5-min Rain = 0
KMC4 130540Z 06007KT 05/01 A3029 RMK A01 T00510007  RH  073%=      5-min Rain = 0
KMC4 130541Z 06007KT 05/01 A3029 RMK A01 T00510007  RH  073%=      5-min Rain = 0
KMC4 130542Z 07007KT 05/01 A3029 RMK A01 T00520007  RH  073%=      5-min Rain = 0
KMC4 130543Z 07007KT 05/01 A3029 RMK A01 T00510007  RH  073%=      5-min Rain = 0
KMC4 130544Z 07006KT 05/01 A3029 RMK A01 T00510007  RH  073%=      5-min Rain = 0
KMC4 130545Z 07007KT 05/01 A3029 RMK A01 T00520007  RH  073%=      5-min Rain = 0
KMC4 130546Z 07005KT 05/01 A3029 RMK A01 T00510007  RH  073%=      5-min Rain = 0
KMC4 130547Z 07006KT 05/01 A3029 RMK A01 T00500007  RH  074%=      5-min Rain = 0
KMC4 130548Z 07006KT 05/01 A3029 RMK A01 T00500007  RH  074%=      5-min Rain = 0
KMC4 130549Z 07005KT 05/01 A3029 RMK A01 T00500007  RH  073%=      5-min Rain = 0
KMC4 130550Z 07005KT 05/01 A3029 RMK A01 T00500006  RH  073%=      5-min Rain = 0
KMC4 130551Z 06005KT 05/01 A3029 RMK A01 T00500007  RH  074%=      5-min Rain = 0
KMC4 130552Z 07005KT 05/01 A3029 RMK A01 T00500007  RH  074%=      5-min Rain = 0
KMC4 130553Z 07004KT 05/01 A3029 RMK A01 T00500007  RH  074%=      5-min Rain = 0
KMC4 130554Z 07004KT 05/01 A3029 RMK A01 T00490007  RH  074%=      5-min Rain = 0
KMC4 130555Z 09003KT 05/01 A3029 RMK A01 T00500007  RH  074%=      5-min Rain = 0
KMC4 130556Z 09004KT 05/01 A3029 RMK A01 T00490007  RH  074%=      5-min Rain = 0
KMC4 130557Z 09004KT 05/01 A3029 RMK A01 T00490007  RH  074%=      5-min Rain = 0
KMC4 130558Z 11004KT 05/01 A3029 RMK A01 T00490007  RH  074%=      5-min Rain = 0
KMC4 130559Z 14005KT 05/01 A3029 RMK A01 T00480007  RH  075%=      5-min Rain = 0

Page generated in 0.0376 seconds.